Wetterdaten: Sonntag, 14.08.2022
Datum Zeit Temp. Aussen Temp. o. S. Temp +5cm Feuchte Auss Luftdruck Regen Sonnenschein Regendauer Solar Windben Empfang
14.08.2022 00:00 22,9 C 21,1 C 17,2 C 65 % 1012,7 hPa 0,0 l/m 0 min 0 min 0 W/m 0,0 km/h (0 Bft) 97,87 %
14.08.2022 00:02 22,9 C 21,1 C 17,2 C 65 % 1012,7 hPa 0,0 l/m 0 min 0 min 0 W/m 0,0 km/h (0 Bft) 97,56 %
14.08.2022 00:04 22,8 C 20,6 C 17,2 C 66 % 1012,8 hPa 0,0 l/m 0 min 0 min 0 W/m 0,0 km/h (0 Bft) 97,87 %
14.08.2022 00:07 22,7 C 20,6 C 17,2 C 65 % 1012,8 hPa 0,0 l/m 0 min 0 min 0 W/m 0,0 km/h (0 Bft) 97,87 %
14.08.2022 00:08 22,7 C 20,6 C 17,2 C 65 % 1012,8 hPa 0,0 l/m 0 min 0 min 0 W/m 0,0 km/h (0 Bft) 98,02 %
14.08.2022 00:10 22,6 C 20,6 C 17,2 C 66 % 1012,8 hPa 0,0 l/m 0 min 0 min 0 W/m 0,0 km/h (0 Bft) 95,65 %
14.08.2022 00:12 22,6 C 20,6 C 17,2 C 66 % 1012,8 hPa 0,0 l/m 0 min 0 min 0 W/m 0,0 km/h (0 Bft) 97,22 %
14.08.2022 00:14 22,5 C 20,6 C 17,2 C 66 % 1012,8 hPa 0,0 l/m 0 min 0 min 0 W/m 0,0 km/h (0 Bft) 98,28 %
14.08.2022 00:16 22,4 C 20,6 C 17,2 C 66 % 1012,8 hPa 0,0 l/m 0 min 0 min 0 W/m 0,0 km/h (0 Bft) 97,87 %
14.08.2022 00:18 22,3 C 20,6 C 17,2 C 66 % 1012,8 hPa 0,0 l/m 0 min 0 min 0 W/m 0,0 km/h (0 Bft) 97,87 %
14.08.2022 00:20 22,3 C 20,6 C 17,2 C 66 % 1012,9 hPa 0,0 l/m 0 min 0 min 0 W/m 0,0 km/h (0 Bft) 97,87 %
14.08.2022 00:22 22,2 C 20,6 C 16,7 C 66 % 1012,8 hPa 0,0 l/m 0 min 0 min 0 W/m 0,0 km/h (0 Bft) 97,83 %
14.08.2022 00:24 22,2 C 20,6 C 17,2 C 66 % 1012,8 hPa 0,0 l/m 0 min 0 min 0 W/m 0,0 km/h (0 Bft) 97,14 %
14.08.2022 00:26 22,1 C 20,6 C 17,2 C 66 % 1012,8 hPa 0,0 l/m 0 min 0 min 0 W/m 0,0 km/h (0 Bft) 98,31 %
14.08.2022 00:28 22,1 C 20,6 C 16,7 C 67 % 1012,8 hPa 0,0 l/m 0 min 0 min 0 W/m 0,0 km/h (0 Bft) 95,74 %
14.08.2022 00:30 22,1 C 20,6 C 16,7 C 67 % 1012,8 hPa 0,0 l/m 0 min 0 min 0 W/m 0,0 km/h (0 Bft) 97,87 %
14.08.2022 00:32 22,0 C 20,6 C 16,7 C 67 % 1012,8 hPa 0,0 l/m 0 min 0 min 0 W/m 0,0 km/h (0 Bft) 97,87 %
14.08.2022 00:34 22,0 C 20,6 C 16,7 C 67 % 1012,8 hPa 0,0 l/m 0 min 0 min 0 W/m 0,0 km/h (0 Bft) 100,00 %
14.08.2022 00:36 21,9 C 20,6 C 16,7 C 68 % 1012,8 hPa 0,0 l/m 0 min 0 min 0 W/m 0,0 km/h (0 Bft) 96,55 %
14.08.2022 00:38 21,9 C 20,0 C 16,7 C 69 % 1012,8 hPa 0,0 l/m 0 min 0 min 0 W/m 0,0 km/h (0 Bft) 97,87 %
14.08.2022 00:40 21,9 C 20,0 C 16,7 C 68 % 1012,8 hPa 0,0 l/m 0 min 0 min 0 W/m 0,0 km/h (0 Bft) 97,87 %
14.08.2022 00:42 21,8 C 20,0 C 16,7 C 68 % 1012,8 hPa 0,0 l/m 0 min 0 min 0 W/m 0,0 km/h (0 Bft) 94,29 %
14.08.2022 00:44 21,8 C 20,0 C 16,7 C 68 % 1012,9 hPa 0,0 l/m 0 min 0 min 0 W/m 0,0 km/h (0 Bft) 95,74 %
14.08.2022 00:46 21,7 C 20,0 C 16,7 C 69 % 1012,9 hPa 0,0 l/m 0 min 0 min 0 W/m 0,0 km/h (0 Bft) 97,87 %
14.08.2022 00:48 21,7 C 20,0 C 16,7 C 69 % 1012,9 hPa 0,0 l/m 0 min 0 min 0 W/m 0,0 km/h (0 Bft) 97,83 %
14.08.2022 00:50 21,6 C 20,0 C 16,7 C 68 % 1012,9 hPa 0,0 l/m 0 min 0 min 0 W/m 0,0 km/h (0 Bft) 100,00 %
14.08.2022 00:52 21,6 C 20,0 C 16,7 C 68 % 1012,9 hPa 0,0 l/m 0 min 0 min 0 W/m 0,0 km/h (0 Bft) 100,00 %
14.08.2022 00:54 21,6 C 20,0 C 16,7 C 68 % 1012,9 hPa 0,0 l/m 0 min 0 min 0 W/m 0,0 km/h (0 Bft) 100,00 %
14.08.2022 00:56 21,5 C 20,0 C 16,7 C 69 % 1012,9 hPa 0,0 l/m 0 min 0 min 0 W/m 0,0 km/h (0 Bft) 100,00 %
14.08.2022 00:58 21,4 C 20,0 C 16,7 C 68 % 1012,9 hPa 0,0 l/m 0 min 0 min 0 W/m 0,0 km/h (0 Bft) 100,00 %
14.08.2022 01:00 21,4 C 20,0 C 16,7 C 69 % 1012,9 hPa 0,0 l/m 0 min 0 min 0 W/m 3,2 km/h (1 Bft) 97,83 %
14.08.2022 01:02 21,3 C 20,0 C 16,7 C 69 % 1012,8 hPa 0,0 l/m 0 min 0 min 0 W/m 3,2 km/h (1 Bft) 100,00 %
14.08.2022 01:04 21,3 C 20,0 C 16,7 C 68 % 1012,9 hPa 0,0 l/m 0 min 0 min 0 W/m 3,2 km/h (1 Bft) 100,00 %
14.08.2022 01:06 21,3 C 20,6 C 16,7 C 67 % 1012,8 hPa 0,0 l/m 0 min 0 min 0 W/m 6,4 km/h (2 Bft) 100,00 %
14.08.2022 01:08 21,3 C 20,6 C 16,7 C 67 % 1012,8 hPa 0,0 l/m 0 min 0 min 0 W/m 3,2 km/h (1 Bft) 100,00 %
14.08.2022 01:10 21,3 C 20,6 C 17,2 C 67 % 1012,8 hPa 0,0 l/m 0 min 0 min 0 W/m 6,4 km/h (2 Bft) 100,00 %
14.08.2022 01:12 21,3 C 20,6 C 17,2 C 66 % 1012,8 hPa 0,0 l/m 0 min 0 min 0 W/m 6,4 km/h (2 Bft) 100,00 %
14.08.2022 01:14 21,3 C 21,1 C 17,8 C 66 % 1012,8 hPa 0,0 l/m 0 min 0 min 0 W/m 6,4 km/h (2 Bft) 100,00 %
14.08.2022 01:16 21,4 C 21,1 C 17,8 C 66 % 1012,8 hPa 0,0 l/m 0 min 0 min 0 W/m 6,4 km/h (2 Bft) 100,00 %
14.08.2022 01:18 21,5 C 21,1 C 17,8 C 65 % 1012,8 hPa 0,0 l/m 0 min 0 min 0 W/m 3,2 km/h (1 Bft) 100,00 %
14.08.2022 01:20 21,6 C 21,1 C 17,8 C 65 % 1012,8 hPa 0,0 l/m 0 min 0 min 0 W/m 6,4 km/h (2 Bft) 100,00 %
14.08.2022 01:22 21,7 C 21,7 C 17,8 C 65 % 1012,8 hPa 0,0 l/m 0 min 0 min 0 W/m 6,4 km/h (2 Bft) 97,87 %
14.08.2022 01:24 21,8 C 21,7 C 18,3 C 64 % 1012,8 hPa 0,0 l/m 0 min 0 min 0 W/m 6,4 km/h (2 Bft) 97,83 %
14.08.2022 01:26 21,9 C 21,7 C 18,3 C 65 % 1012,8 hPa 0,0 l/m 0 min 0 min 0 W/m 6,4 km/h (2 Bft) 97,87 %
14.08.2022 01:28 21,9 C 21,7 C 18,3 C 64 % 1012,8 hPa 0,0 l/m 0 min 0 min 0 W/m 6,4 km/h (2 Bft) 97,87 %
14.08.2022 01:30 22,1 C 22,2 C 18,3 C 64 % 1012,8 hPa 0,0 l/m 0 min 0 min 0 W/m 6,4 km/h (2 Bft) 95,74 %
14.08.2022 01:32 22,2 C 22,2 C 18,3 C 63 % 1012,8 hPa 0,0 l/m 0 min 0 min 0 W/m 9,7 km/h (2 Bft) 97,87 %
14.08.2022 01:34 22,3 C 22,2 C 18,3 C 63 % 1012,8 hPa 0,0 l/m 0 min 0 min 0 W/m 6,4 km/h (2 Bft) 97,87 %
14.08.2022 01:38 22,5 C 22,2 C 18,9 C 63 % 1012,7 hPa 0,0 l/m 0 min 0 min 0 W/m 6,4 km/h (2 Bft) 95,70 %
14.08.2022 01:40 22,6 C 22,8 C 18,9 C 62 % 1012,8 hPa 0,0 l/m 0 min 0 min 0 W/m 6,4 km/h (2 Bft) 95,74 %
14.08.2022 01:42 22,7 C 22,8 C 18,9 C 62 % 1012,7 hPa 0,0 l/m 0 min 0 min 0 W/m 6,4 km/h (2 Bft) 91,49 %
14.08.2022 01:44 22,8 C 22,8 C 18,9 C 62 % 1012,7 hPa 0,0 l/m 0 min 0 min 0 W/m 6,4 km/h (2 Bft) 95,74 %
14.08.2022 01:46 22,9 C 22,8 C 18,9 C 61 % 1012,7 hPa 0,0 l/m 0 min 0 min 0 W/m 6,4 km/h (2 Bft) 95,74 %
14.08.2022 01:48 23,1 C 22,8 C 18,9 C 61 % 1012,8 hPa 0,0 l/m 0 min 0 min 0 W/m 12,9 km/h (3 Bft) 95,65 %
14.08.2022 01:50 23,1 C 22,8 C 18,9 C 61 % 1012,7 hPa 0,0 l/m 0 min 0 min 0 W/m 6,4 km/h (2 Bft) 95,74 %
14.08.2022 01:52 23,2 C 22,8 C 19,4 C 61 % 1012,7 hPa 0,0 l/m 0 min 0 min 0 W/m 6,4 km/h (2 Bft) 95,74 %
14.08.2022 01:54 23,3 C 22,8 C 19,4 C 60 % 1012,7 hPa 0,0 l/m 0 min 0 min 0 W/m 6,4 km/h (2 Bft) 97,87 %
14.08.2022 01:56 23,4 C 22,8 C 18,9 C 60 % 1012,6 hPa 0,0 l/m 0 min 0 min 0 W/m 6,4 km/h (2 Bft) 97,87 %
14.08.2022 01:58 23,4 C 22,8 C 18,9 C 60 % 1012,6 hPa 0,0 l/m 0 min 0 min 0 W/m 3,2 km/h (1 Bft) 97,87 %
14.08.2022 02:00 23,4 C 22,8 C 18,9 C 60 % 1012,6 hPa 0,0 l/m 0 min 0 min 0 W/m 6,4 km/h (2 Bft) 93,48 %
14.08.2022 02:02 23,5 C 22,8 C 18,9 C 60 % 1012,5 hPa 0,0 l/m 0 min 0 min 0 W/m 12,9 km/h (3 Bft) 97,87 %
14.08.2022 02:04 23,5 C 22,8 C 18,9 C 60 % 1012,4 hPa 0,0 l/m 0 min 0 min 0 W/m 9,7 km/h (2 Bft) 97,87 %
14.08.2022 02:06 23,5 C 22,8 C 18,9 C 60 % 1012,4 hPa 0,0 l/m 0 min 0 min 0 W/m 3,2 km/h (1 Bft) 97,87 %
14.08.2022 02:08 23,6 C 22,8 C 18,9 C 60 % 1012,3 hPa 0,0 l/m 0 min 0 min 0 W/m 3,2 km/h (1 Bft) 97,87 %
14.08.2022 02:10 23,5 C 22,8 C 18,9 C 60 % 1012,4 hPa 0,0 l/m 0 min 0 min 0 W/m 9,7 km/h (2 Bft) 95,74 %
14.08.2022 02:12 23,5 C 22,8 C 18,9 C 60 % 1012,4 hPa 0,0 l/m 0 min 0 min 0 W/m 3,2 km/h (1 Bft) 97,83 %
14.08.2022 02:14 23,5 C 22,8 C 18,9 C 60 % 1012,3 hPa 0,0 l/m 0 min 0 min 0 W/m 6,4 km/h (2 Bft) 97,87 %
14.08.2022 02:16 23,5 C 22,8 C 18,9 C 60 % 1012,4 hPa 0,0 l/m 0 min 0 min 0 W/m 6,4 km/h (2 Bft) 97,87 %
14.08.2022 02:18 23,5 C 22,8 C 18,9 C 60 % 1012,3 hPa 0,0 l/m 0 min 0 min 0 W/m 3,2 km/h (1 Bft) 95,74 %
14.08.2022 02:20 23,5 C 22,2 C 18,9 C 60 % 1012,3 hPa 0,0 l/m 0 min 0 min 0 W/m 3,2 km/h (1 Bft) 95,74 %
14.08.2022 02:22 23,5 C 22,2 C 18,9 C 61 % 1012,3 hPa 0,0 l/m 0 min 0 min 0 W/m 6,4 km/h (2 Bft) 97,92 %
14.08.2022 02:24 23,4 C 22,2 C 18,9 C 60 % 1012,2 hPa 0,0 l/m 0 min 0 min 0 W/m 6,4 km/h (2 Bft) 100,00 %
14.08.2022 02:26 23,4 C 22,2 C 18,9 C 60 % 1012,2 hPa 0,0 l/m 0 min 0 min 0 W/m 3,2 km/h (1 Bft) 95,74 %
14.08.2022 02:28 23,4 C 22,2 C 18,9 C 60 % 1012,2 hPa 0,0 l/m 0 min 0 min 0 W/m 3,2 km/h (1 Bft) 97,87 %
14.08.2022 02:30 23,4 C 22,2 C 18,9 C 60 % 1012,2 hPa 0,0 l/m 0 min 0 min 0 W/m 3,2 km/h (1 Bft) 100,00 %
14.08.2022 02:32 23,4 C 22,2 C 18,3 C 61 % 1012,2 hPa 0,0 l/m 0 min 0 min 0 W/m 3,2 km/h (1 Bft) 100,00 %
14.08.2022 02:34 23,4 C 22,2 C 18,3 C 61 % 1012,2 hPa 0,0 l/m 0 min 0 min 0 W/m 6,4 km/h (2 Bft) 100,00 %
14.08.2022 02:36 23,3 C 22,2 C 18,3 C 61 % 1012,2 hPa 0,0 l/m 0 min 0 min 0 W/m 3,2 km/h (1 Bft) 97,87 %
14.08.2022 02:38 23,3 C 22,2 C 18,3 C 61 % 1012,2 hPa 0,0 l/m 0 min 0 min 0 W/m 3,2 km/h (1 Bft) 97,87 %
14.08.2022 02:40 23,3 C 22,2 C 18,3 C 61 % 1012,1 hPa 0,0 l/m 0 min 0 min 0 W/m 3,2 km/h (1 Bft) 100,00 %
14.08.2022 02:42 23,3 C 22,2 C 18,3 C 61 % 1012,1 hPa 0,0 l/m 0 min 0 min 0 W/m 0,0 km/h (0 Bft) 100,00 %
14.08.2022 02:44 23,3 C 21,7 C 17,8 C 61 % 1012,1 hPa 0,0 l/m 0 min 0 min 0 W/m 0,0 km/h (0 Bft) 100,00 %
14.08.2022 02:46 23,2 C 21,7 C 17,8 C 62 % 1012,0 hPa 0,0 l/m 0 min 0 min 0 W/m 0,0 km/h (0 Bft) 100,00 %
14.08.2022 02:48 23,2 C 21,7 C 17,8 C 62 % 1012,0 hPa 0,0 l/m 0 min 0 min 0 W/m 0,0 km/h (0 Bft) 95,74 %
14.08.2022 02:50 23,2 C 21,1 C 17,8 C 63 % 1012,0 hPa 0,0 l/m 0 min 0 min 0 W/m 0,0 km/h (0 Bft) 97,87 %
14.08.2022 02:52 23,2 C 21,1 C 17,2 C 63 % 1012,0 hPa 0,0 l/m 0 min 0 min 0 W/m 0,0 km/h (0 Bft) 97,87 %
14.08.2022 02:54 23,1 C 21,1 C 17,2 C 63 % 1011,9 hPa 0,0 l/m 0 min 0 min 0 W/m 0,0 km/h (0 Bft) 97,87 %
14.08.2022 02:56 23,1 C 21,1 C 17,2 C 64 % 1012,0 hPa 0,0 l/m 0 min 0 min 0 W/m 0,0 km/h (0 Bft) 97,87 %
14.08.2022 02:58 23,1 C 20,6 C 16,7 C 65 % 1011,9 hPa 0,0 l/m 0 min 0 min 0 W/m 0,0 km/h (0 Bft) 97,83 %
14.08.2022 03:00 23,0 C 20,6 C 16,7 C 65 % 1011,8 hPa 0,0 l/m 0 min 0 min 0 W/m 0,0 km/h (0 Bft) 97,87 %
14.08.2022 03:02 22,9 C 20,6 C 16,7 C 65 % 1011,8 hPa 0,0 l/m 0 min 0 min 0 W/m 0,0 km/h (0 Bft) 95,74 %
14.08.2022 03:04 22,9 C 20,0 C 16,7 C 66 % 1011,8 hPa 0,0 l/m 0 min 0 min 0 W/m 0,0 km/h (0 Bft) 97,87 %
14.08.2022 03:06 22,8 C 20,0 C 16,7 C 67 % 1011,8 hPa 0,0 l/m 0 min 0 min 0 W/m 0,0 km/h (0 Bft) 97,87 %
14.08.2022 03:08 22,7 C 20,0 C 16,1 C 67 % 1011,8 hPa 0,0 l/m 0 min 0 min 0 W/m 0,0 km/h (0 Bft) 97,83 %
14.08.2022 03:10 22,6 C 20,0 C 16,1 C 67 % 1011,8 hPa 0,0 l/m 0 min 0 min 0 W/m 0,0 km/h (0 Bft) 95,74 %
14.08.2022 03:12 22,6 C 20,0 C 16,1 C 67 % 1011,8 hPa 0,0 l/m 0 min 0 min 0 W/m 0,0 km/h (0 Bft) 97,87 %
14.08.2022 03:14 22,4 C 20,0 C 16,1 C 68 % 1011,7 hPa 0,0 l/m 0 min 0 min 0 W/m 0,0 km/h (0 Bft) 97,87 %
14.08.2022 03:16 22,3 C 19,4 C 16,1 C 68 % 1011,7 hPa 0,0 l/m 0 min 0 min 0 W/m 0,0 km/h (0 Bft) 95,74 %
14.08.2022 03:18 22,3 C 19,4 C 16,1 C 68 % 1011,6 hPa 0,0 l/m 0 min 0 min 0 W/m 0,0 km/h (0 Bft) 93,62 %
14.08.2022 03:20 22,1 C 19,4 C 16,1 C 68 % 1011,6 hPa 0,0 l/m 0 min 0 min 0 W/m 0,0 km/h (0 Bft) 95,65 %
14.08.2022 03:22 22,0 C 19,4 C 16,1 C 69 % 1011,6 hPa 0,0 l/m 0 min 0 min 0 W/m 0,0 km/h (0 Bft) 95,74 %
14.08.2022 03:24 21,9 C 19,4 C 16,1 C 68 % 1011,6 hPa 0,0 l/m 0 min 0 min 0 W/m 0,0 km/h (0 Bft) 95,74 %
14.08.2022 03:26 21,8 C 19,4 C 16,1 C 69 % 1011,5 hPa 0,0 l/m 0 min 0 min 0 W/m 0,0 km/h (0 Bft) 95,74 %
14.08.2022 03:28 21,7 C 19,4 C 15,6 C 69 % 1011,6 hPa 0,0 l/m 0 min 0 min 0 W/m 0,0 km/h (0 Bft) 95,74 %
14.08.2022 03:30 21,6 C 18,9 C 15,6 C 69 % 1011,5 hPa 0,0 l/m 0 min 0 min 0 W/m 0,0 km/h (0 Bft) 95,65 %
14.08.2022 03:32 21,5 C 18,9 C 15,6 C 70 % 1011,5 hPa 0,0 l/m 0 min 0 min 0 W/m 0,0 km/h (0 Bft) 95,65 %
14.08.2022 03:34 21,4 C 18,9 C 15,6 C 70 % 1011,5 hPa 0,0 l/m 0 min 0 min 0 W/m 0,0 km/h (0 Bft) 95,74 %
14.08.2022 03:36 21,3 C 18,9 C 15,6 C 70 % 1011,4 hPa 0,0 l/m 0 min 0 min 0 W/m 0,0 km/h (0 Bft) 97,87 %
14.08.2022 03:38 21,3 C 18,9 C 15,6 C 71 % 1011,4 hPa 0,0 l/m 0 min 0 min 0 W/m 0,0 km/h (0 Bft) 97,87 %
14.08.2022 03:40 21,2 C 18,9 C 15,6 C 71 % 1011,3 hPa 0,0 l/m 0 min 0 min 0 W/m 0,0 km/h (0 Bft) 97,87 %
14.08.2022 03:42 21,1 C 18,9 C 15,6 C 72 % 1011,3 hPa 0,0 l/m 0 min 0 min 0 W/m 0,0 km/h (0 Bft) 95,74 %
14.08.2022 03:44 21,1 C 18,9 C 15,6 C 72 % 1011,3 hPa 0,0 l/m 0 min 0 min 0 W/m 0,0 km/h (0 Bft) 97,83 %
14.08.2022 03:46 21,0 C 18,9 C 15,6 C 72 % 1011,2 hPa 0,0 l/m 0 min 0 min 0 W/m 0,0 km/h (0 Bft) 100,00 %
14.08.2022 03:48 20,9 C 18,9 C 15,6 C 72 % 1011,2 hPa 0,0 l/m 0 min 0 min 0 W/m 0,0 km/h (0 Bft) 100,00 %
14.08.2022 03:50 20,8 C 18,9 C 15,6 C 72 % 1011,2 hPa 0,0 l/m 0 min 0 min 0 W/m 0,0 km/h (0 Bft) 100,00 %
14.08.2022 03:52 20,7 C 18,9 C 15,0 C 72 % 1011,2 hPa 0,0 l/m 0 min 0 min 0 W/m 0,0 km/h (0 Bft) 97,87 %
14.08.2022 03:54 20,7 C 18,9 C 15,0 C 72 % 1011,2 hPa 0,0 l/m 0 min 0 min 0 W/m 0,0 km/h (0 Bft) 100,00 %
14.08.2022 03:56 20,6 C 18,3 C 15,0 C 73 % 1011,1 hPa 0,0 l/m 0 min 0 min 0 W/m 3,2 km/h (1 Bft) 100,00 %
14.08.2022 03:58 20,5 C 18,9 C 15,0 C 73 % 1011,1 hPa 0,0 l/m 0 min 0 min 0 W/m 0,0 km/h (0 Bft) 100,00 %
14.08.2022 04:00 20,4 C 18,3 C 15,0 C 73 % 1011,1 hPa 0,0 l/m 0 min 0 min 0 W/m 0,0 km/h (0 Bft) 100,00 %
14.08.2022 04:05 20,3 C 18,3 C 15,0 C 74 % 1011,1 hPa 0,0 l/m 0 min 0 min 0 W/m 0,0 km/h (0 Bft) 98,44 %
14.08.2022 04:06 20,3 C 18,3 C 15,0 C 75 % 1011,1 hPa 0,0 l/m 0 min 0 min 0 W/m 0,0 km/h (0 Bft) 100,00 %
14.08.2022 04:08 20,2 C 18,3 C 15,0 C 75 % 1011,1 hPa 0,0 l/m 0 min 0 min 0 W/m 0,0 km/h (0 Bft) 93,48 %
14.08.2022 04:10 20,2 C 18,3 C 15,0 C 75 % 1011,1 hPa 0,0 l/m 0 min 0 min 0 W/m 0,0 km/h (0 Bft) 93,94 %
14.08.2022 04:12 20,1 C 18,3 C 15,0 C 75 % 1011,1 hPa 0,0 l/m 0 min 0 min 0 W/m 0,0 km/h (0 Bft) 97,87 %
14.08.2022 04:14 20,1 C 18,3 C 15,0 C 75 % 1011,1 hPa 0,0 l/m 0 min 0 min 0 W/m 0,0 km/h (0 Bft) 100,00 %
14.08.2022 04:16 20,1 C 18,3 C 15,0 C 75 % 1011,1 hPa 0,0 l/m 0 min 0 min 0 W/m 0,0 km/h (0 Bft) 100,00 %
14.08.2022 04:18 20,0 C 18,3 C 15,0 C 76 % 1011,1 hPa 0,0 l/m 0 min 0 min 0 W/m 0,0 km/h (0 Bft) 100,00 %
14.08.2022 04:20 20,0 C 18,3 C 15,0 C 76 % 1011,1 hPa 0,0 l/m 0 min 0 min 0 W/m 0,0 km/h (0 Bft) 100,00 %
14.08.2022 04:22 19,9 C 18,3 C 15,0 C 75 % 1011,1 hPa 0,0 l/m 0 min 0 min 0 W/m 0,0 km/h (0 Bft) 100,00 %
14.08.2022 04:24 19,9 C 18,3 C 15,0 C 75 % 1011,1 hPa 0,0 l/m 0 min 0 min 0 W/m 0,0 km/h (0 Bft) 100,00 %
14.08.2022 04:26 19,8 C 18,3 C 15,0 C 76 % 1011,1 hPa 0,0 l/m 0 min 0 min 0 W/m 0,0 km/h (0 Bft) 100,00 %
14.08.2022 04:28 19,8 C 18,3 C 15,0 C 77 % 1011,1 hPa 0,0 l/m 0 min 0 min 0 W/m 0,0 km/h (0 Bft) 100,00 %
14.08.2022 04:30 19,8 C 18,3 C 15,0 C 77 % 1011,1 hPa 0,0 l/m 0 min 0 min 0 W/m 0,0 km/h (0 Bft) 97,87 %
14.08.2022 04:32 19,7 C 18,3 C 15,0 C 76 % 1011,1 hPa 0,0 l/m 0 min 0 min 0 W/m 0,0 km/h (0 Bft) 97,83 %
14.08.2022 04:34 19,7 C 18,3 C 15,0 C 77 % 1011,1 hPa 0,0 l/m 0 min 0 min 0 W/m 0,0 km/h (0 Bft) 97,87 %
14.08.2022 04:36 19,7 C 18,3 C 14,4 C 77 % 1011,1 hPa 0,0 l/m 0 min 0 min 0 W/m 0,0 km/h (0 Bft) 95,74 %
14.08.2022 04:38 19,7 C 17,8 C 14,4 C 77 % 1011,1 hPa 0,0 l/m 0 min 0 min 0 W/m 0,0 km/h (0 Bft) 97,87 %
14.08.2022 04:40 19,6 C 17,8 C 14,4 C 78 % 1011,1 hPa 0,0 l/m 0 min 0 min 0 W/m 0,0 km/h (0 Bft) 97,87 %
14.08.2022 04:42 19,6 C 17,8 C 14,4 C 77 % 1011,2 hPa 0,0 l/m 0 min 0 min 0 W/m 0,0 km/h (0 Bft) 97,87 %
14.08.2022 04:44 19,5 C 17,8 C 14,4 C 77 % 1011,2 hPa 0,0 l/m 0 min 0 min 0 W/m 0,0 km/h (0 Bft) 97,83 %
14.08.2022 04:46 19,5 C 17,8 C 14,4 C 77 % 1011,2 hPa 0,0 l/m 0 min 0 min 0 W/m 0,0 km/h (0 Bft) 95,74 %
14.08.2022 04:48 19,4 C 17,8 C 14,4 C 77 % 1011,2 hPa 0,0 l/m 0 min 0 min 0 W/m 0,0 km/h (0 Bft) 97,87 %
14.08.2022 04:50 19,4 C 17,8 C 14,4 C 78 % 1011,1 hPa 0,0 l/m 0 min 0 min 0 W/m 0,0 km/h (0 Bft) 97,87 %
14.08.2022 04:52 19,4 C 17,8 C 14,4 C 78 % 1011,2 hPa 0,0 l/m 0 min 0 min 0 W/m 0,0 km/h (0 Bft) 95,74 %
14.08.2022 04:54 19,4 C 17,8 C 14,4 C 78 % 1011,1 hPa 0,0 l/m 0 min 0 min 0 W/m 0,0 km/h (0 Bft) 97,87 %
14.08.2022 04:56 19,3 C 17,8 C 14,4 C 78 % 1011,1 hPa 0,0 l/m 0 min 0 min 0 W/m 0,0 km/h (0 Bft) 97,62 %
14.08.2022 04:58 19,3 C 17,8 C 14,4 C 78 % 1011,1 hPa 0,0 l/m 0 min 0 min 0 W/m 0,0 km/h (0 Bft) 97,83 %
14.08.2022 05:00 19,3 C 17,8 C 14,4 C 78 % 1011,1 hPa 0,0 l/m 0 min 0 min 0 W/m 0,0 km/h (0 Bft) 97,87 %
14.08.2022 05:02 19,2 C 17,8 C 14,4 C 78 % 1011,2 hPa 0,0 l/m 0 min 0 min 0 W/m 0,0 km/h (0 Bft) 95,92 %
14.08.2022 05:04 19,2 C 17,8 C 14,4 C 78 % 1011,1 hPa 0,0 l/m 0 min 0 min 0 W/m 0,0 km/h (0 Bft) 93,62 %
14.08.2022 05:06 19,1 C 17,8 C 14,4 C 78 % 1011,1 hPa 0,0 l/m 0 min 0 min 0 W/m 0,0 km/h (0 Bft) 95,74 %
14.08.2022 05:08 19,1 C 17,8 C 14,4 C 78 % 1011,1 hPa 0,0 l/m 0 min 0 min 0 W/m 0,0 km/h (0 Bft) 93,62 %
14.08.2022 05:10 19,1 C 17,8 C 14,4 C 78 % 1011,1 hPa 0,0 l/m 0 min 0 min 0 W/m 0,0 km/h (0 Bft) 95,65 %
14.08.2022 05:12 19,0 C 17,8 C 14,4 C 79 % 1011,1 hPa 0,0 l/m 0 min 0 min 0 W/m 0,0 km/h (0 Bft) 93,62 %
14.08.2022 05:14 19,0 C 17,8 C 14,4 C 79 % 1011,0 hPa 0,0 l/m 0 min 0 min 0 W/m 0,0 km/h (0 Bft) 93,62 %
14.08.2022 05:16 19,0 C 17,2 C 14,4 C 79 % 1011,0 hPa 0,0 l/m 0 min 0 min 0 W/m 0,0 km/h (0 Bft) 95,74 %
14.08.2022 05:18 18,9 C 17,2 C 14,4 C 80 % 1011,0 hPa 0,0 l/m 0 min 0 min 0 W/m 0,0 km/h (0 Bft) 95,74 %
14.08.2022 05:20 18,9 C 17,2 C 13,9 C 80 % 1010,9 hPa 0,0 l/m 0 min 0 min 0 W/m 0,0 km/h (0 Bft) 93,62 %
14.08.2022 05:22 18,9 C 17,2 C 13,9 C 80 % 1011,0 hPa 0,0 l/m 0 min 0 min 0 W/m 0,0 km/h (0 Bft) 93,48 %
14.08.2022 05:24 18,9 C 17,2 C 13,9 C 80 % 1011,0 hPa 0,0 l/m 0 min 0 min 0 W/m 0,0 km/h (0 Bft) 93,62 %
14.08.2022 05:26 18,8 C 17,2 C 13,9 C 80 % 1010,9 hPa 0,0 l/m 0 min 0 min 0 W/m 0,0 km/h (0 Bft) 95,74 %
14.08.2022 05:28 18,8 C 17,2 C 13,9 C 80 % 1010,9 hPa 0,0 l/m 0 min 0 min 0 W/m 0,0 km/h (0 Bft) 93,62 %
14.08.2022 05:30 18,8 C 17,2 C 14,4 C 80 % 1010,9 hPa 0,0 l/m 0 min 0 min 0 W/m 0,0 km/h (0 Bft) 95,74 %
14.08.2022 05:32 18,7 C 17,2 C 13,9 C 80 % 1010,9 hPa 0,0 l/m 0 min 0 min 0 W/m 0,0 km/h (0 Bft) 97,87 %
14.08.2022 05:34 18,7 C 17,2 C 13,9 C 80 % 1010,9 hPa 0,0 l/m 0 min 0 min 0 W/m 0,0 km/h (0 Bft) 97,83 %
14.08.2022 05:36 18,7 C 17,2 C 13,9 C 80 % 1010,9 hPa 0,0 l/m 0 min 0 min 0 W/m 0,0 km/h (0 Bft) 93,62 %
14.08.2022 05:38 18,7 C 17,2 C 13,9 C 80 % 1010,9 hPa 0,0 l/m 0 min 0 min 0 W/m 0,0 km/h (0 Bft) 97,87 %
14.08.2022 05:40 18,6 C 17,2 C 13,9 C 80 % 1010,9 hPa 0,0 l/m 0 min 0 min 0 W/m 0,0 km/h (0 Bft) 97,87 %
14.08.2022 05:42 18,6 C 17,2 C 13,9 C 81 % 1010,9 hPa 0,0 l/m 0 min 0 min 0 W/m 3,2 km/h (1 Bft) 97,87 %
14.08.2022 05:44 18,6 C 17,2 C 13,9 C 81 % 1010,9 hPa 0,0 l/m 0 min 0 min 0 W/m 3,2 km/h (1 Bft) 97,87 %
14.08.2022 05:46 18,5 C 17,2 C 13,9 C 81 % 1010,8 hPa 0,0 l/m 0 min 0 min 0 W/m 0,0 km/h (0 Bft) 95,65 %
14.08.2022 05:48 18,5 C 17,2 C 13,9 C 81 % 1010,8 hPa 0,0 l/m 0 min 0 min 0 W/m 3,2 km/h (1 Bft) 97,87 %
14.08.2022 05:50 18,4 C 17,2 C 13,9 C 81 % 1010,8 hPa 0,0 l/m 0 min 0 min 0 W/m 0,0 km/h (0 Bft) 97,87 %
14.08.2022 05:52 18,4 C 17,2 C 13,9 C 81 % 1010,7 hPa 0,0 l/m 0 min 0 min 0 W/m 0,0 km/h (0 Bft) 97,87 %
14.08.2022 05:54 18,3 C 17,2 C 13,9 C 81 % 1010,7 hPa 0,0 l/m 0 min 0 min 0 W/m 0,0 km/h (0 Bft) 97,87 %
14.08.2022 05:56 18,3 C 17,2 C 13,9 C 81 % 1010,8 hPa 0,0 l/m 0 min 0 min 0 W/m 0,0 km/h (0 Bft) 97,87 %
14.08.2022 05:58 18,3 C 17,2 C 13,9 C 81 % 1010,8 hPa 0,0 l/m 0 min 0 min 0 W/m 0,0 km/h (0 Bft) 97,83 %
14.08.2022 06:00 18,3 C 17,2 C 13,9 C 81 % 1010,8 hPa 0,0 l/m 0 min 0 min 0 W/m 0,0 km/h (0 Bft) 100,00 %
14.08.2022 06:02 18,2 C 17,2 C 13,9 C 81 % 1010,8 hPa 0,0 l/m 0 min 0 min 0 W/m 0,0 km/h (0 Bft) 100,00 %
14.08.2022 06:04 18,2 C 16,7 C 13,9 C 81 % 1010,8 hPa 0,0 l/m 0 min 0 min 0 W/m 0,0 km/h (0 Bft) 100,00 %
14.08.2022 06:08 18,2 C 16,7 C 13,9 C 82 % 1010,8 hPa 0,0 l/m 0 min 0 min 0 W/m 0,0 km/h (0 Bft) 98,95 %
14.08.2022 06:10 18,2 C 16,7 C 13,9 C 82 % 1010,8 hPa 0,0 l/m 0 min 0 min 0 W/m 0,0 km/h (0 Bft) 100,00 %
14.08.2022 06:12 18,2 C 16,7 C 13,9 C 82 % 1010,8 hPa 0,0 l/m 0 min 0 min 0 W/m 0,0 km/h (0 Bft) 100,00 %
14.08.2022 06:14 18,2 C 16,7 C 13,9 C 82 % 1010,8 hPa 0,0 l/m 0 min 0 min 0 W/m 0,0 km/h (0 Bft) 100,00 %
14.08.2022 06:16 18,2 C 16,7 C 13,9 C 82 % 1010,7 hPa 0,0 l/m 0 min 0 min 0 W/m 0,0 km/h (0 Bft) 100,00 %
14.08.2022 06:18 18,1 C 16,7 C 13,3 C 82 % 1010,8 hPa 0,0 l/m 0 min 0 min 0 W/m 0,0 km/h (0 Bft) 100,00 %
14.08.2022 06:20 18,1 C 16,7 C 13,3 C 82 % 1010,8 hPa 0,0 l/m 0 min 0 min 0 W/m 0,0 km/h (0 Bft) 100,00 %
14.08.2022 06:22 18,1 C 16,7 C 13,9 C 82 % 1010,8 hPa 0,0 l/m 0 min 0 min 1 W/m 0,0 km/h (0 Bft) 97,83 %
14.08.2022 06:24 18,1 C 16,7 C 13,9 C 82 % 1010,8 hPa 0,0 l/m 0 min 0 min 5 W/m 0,0 km/h (0 Bft) 95,74 %
14.08.2022 06:26 18,1 C 16,7 C 13,9 C 83 % 1010,8 hPa 0,0 l/m 0 min 0 min 5 W/m 0,0 km/h (0 Bft) 100,00 %
14.08.2022 06:28 18,1 C 16,7 C 13,3 C 83 % 1010,8 hPa 0,0 l/m 0 min 0 min 6 W/m 0,0 km/h (0 Bft) 100,00 %
14.08.2022 06:30 18,1 C 16,7 C 13,9 C 83 % 1010,8 hPa 0,0 l/m 0 min 0 min 7 W/m 0,0 km/h (0 Bft) 100,00 %
14.08.2022 06:32 18,0 C 16,7 C 13,9 C 83 % 1010,7 hPa 0,0 l/m 0 min 0 min 7 W/m 0,0 km/h (0 Bft) 97,87 %
14.08.2022 06:34 18,0 C 16,7 C 13,9 C 83 % 1010,7 hPa 0,0 l/m 0 min 0 min 9 W/m 0,0 km/h (0 Bft) 100,00 %
14.08.2022 06:36 18,0 C 16,7 C 13,9 C 83 % 1010,7 hPa 0,0 l/m 0 min 0 min 9 W/m 3,2 km/h (1 Bft) 100,00 %
14.08.2022 06:38 17,9 C 16,7 C 13,9 C 83 % 1010,6 hPa 0,0 l/m 0 min 0 min 11 W/m 0,0 km/h (0 Bft) 100,00 %
14.08.2022 06:40 17,9 C 16,7 C 13,9 C 83 % 1010,7 hPa 0,0 l/m 0 min 0 min 11 W/m 0,0 km/h (0 Bft) 100,00 %
14.08.2022 06:42 17,9 C 16,7 C 13,9 C 83 % 1010,7 hPa 0,0 l/m 0 min 0 min 12 W/m 3,2 km/h (1 Bft) 100,00 %
14.08.2022 06:44 17,9 C 16,7 C 13,9 C 83 % 1010,7 hPa 0,0 l/m 0 min 0 min 12 W/m 3,2 km/h (1 Bft) 97,87 %
14.08.2022 06:46 17,9 C 16,7 C 13,3 C 84 % 1010,7 hPa 0,0 l/m 0 min 0 min 13 W/m 3,2 km/h (1 Bft) 97,83 %
14.08.2022 06:48 17,9 C 16,7 C 13,3 C 84 % 1010,7 hPa 0,0 l/m 0 min 0 min 14 W/m 3,2 km/h (1 Bft) 97,87 %
14.08.2022 06:50 17,9 C 16,7 C 13,9 C 84 % 1010,7 hPa 0,0 l/m 0 min 0 min 14 W/m 3,2 km/h (1 Bft) 97,87 %
14.08.2022 06:52 17,9 C 17,2 C 13,9 C 84 % 1010,7 hPa 0,0 l/m 0 min 0 min 16 W/m 3,2 km/h (1 Bft) 97,87 %
14.08.2022 06:54 17,9 C 17,2 C 13,9 C 84 % 1010,6 hPa 0,0 l/m 0 min 0 min 16 W/m 3,2 km/h (1 Bft) 95,74 %
14.08.2022 06:56 17,8 C 17,2 C 13,9 C 84 % 1010,6 hPa 0,0 l/m 0 min 0 min 18 W/m 0,0 km/h (0 Bft) 95,65 %
14.08.2022 06:58 17,8 C 17,2 C 13,9 C 84 % 1010,6 hPa 0,0 l/m 0 min 0 min 18 W/m 0,0 km/h (0 Bft) 97,87 %
14.08.2022 07:00 17,9 C 17,2 C 13,9 C 84 % 1010,5 hPa 0,0 l/m 0 min 0 min 19 W/m 0,0 km/h (0 Bft) 97,87 %
14.08.2022 07:02 17,9 C 17,2 C 13,9 C 84 % 1010,5 hPa 0,0 l/m 0 min 0 min 19 W/m 0,0 km/h (0 Bft) 97,87 %
14.08.2022 07:04 17,9 C 17,2 C 13,9 C 84 % 1010,5 hPa 0,0 l/m 0 min 0 min 20 W/m 0,0 km/h (0 Bft) 97,87 %
14.08.2022 07:06 17,9 C 17,2 C 13,9 C 84 % 1010,5 hPa 0,0 l/m 0 min 0 min 21 W/m 0,0 km/h (0 Bft) 97,87 %
14.08.2022 07:08 17,9 C 17,2 C 13,9 C 84 % 1010,5 hPa 0,0 l/m 0 min 0 min 21 W/m 0,0 km/h (0 Bft) 97,83 %
14.08.2022 07:10 17,9 C 17,2 C 13,9 C 84 % 1010,5 hPa 0,0 l/m 0 min 0 min 23 W/m 0,0 km/h (0 Bft) 97,87 %
14.08.2022 07:12 17,9 C 17,2 C 13,9 C 85 % 1010,5 hPa 0,0 l/m 0 min 0 min 23 W/m 0,0 km/h (0 Bft) 97,87 %
14.08.2022 07:14 17,9 C 17,2 C 13,9 C 85 % 1010,5 hPa 0,0 l/m 0 min 0 min 23 W/m 0,0 km/h (0 Bft) 97,87 %
14.08.2022 07:16 18,0 C 17,8 C 13,9 C 85 % 1010,5 hPa 0,0 l/m 0 min 0 min 25 W/m 0,0 km/h (0 Bft) 100,00 %
14.08.2022 07:18 18,0 C 17,8 C 13,9 C 85 % 1010,5 hPa 0,0 l/m 0 min 0 min 25 W/m 0,0 km/h (0 Bft) 97,87 %
14.08.2022 07:20 18,1 C 17,8 C 14,4 C 85 % 1010,5 hPa 0,0 l/m 0 min 0 min 26 W/m 0,0 km/h (0 Bft) 97,83 %
14.08.2022 07:22 18,1 C 17,8 C 14,4 C 85 % 1010,5 hPa 0,0 l/m 0 min 0 min 26 W/m 0,0 km/h (0 Bft) 97,87 %
14.08.2022 07:24 18,1 C 17,8 C 14,4 C 85 % 1010,4 hPa 0,0 l/m 0 min 0 min 26 W/m 0,0 km/h (0 Bft) 100,00 %
14.08.2022 07:26 18,1 C 17,8 C 14,4 C 85 % 1010,4 hPa 0,0 l/m 0 min 0 min 28 W/m 0,0 km/h (0 Bft) 100,00 %
14.08.2022 07:28 18,1 C 17,8 C 14,4 C 85 % 1010,4 hPa 0,0 l/m 0 min 0 min 28 W/m 3,2 km/h (1 Bft) 100,00 %
14.08.2022 07:30 18,1 C 17,8 C 14,4 C 85 % 1010,4 hPa 0,0 l/m 0 min 0 min 28 W/m 3,2 km/h (1 Bft) 100,00 %
14.08.2022 07:32 18,2 C 17,8 C 14,4 C 86 % 1010,3 hPa 0,0 l/m 0 min 0 min 30 W/m 6,4 km/h (2 Bft) 97,87 %
14.08.2022 07:34 18,2 C 17,8 C 14,4 C 86 % 1010,3 hPa 0,0 l/m 0 min 0 min 30 W/m 3,2 km/h (1 Bft) 97,83 %
14.08.2022 07:36 18,2 C 17,8 C 14,4 C 86 % 1010,3 hPa 0,0 l/m 0 min 0 min 31 W/m 0,0 km/h (0 Bft) 100,00 %
14.08.2022 07:38 18,2 C 17,8 C 14,4 C 86 % 1010,3 hPa 0,0 l/m 0 min 0 min 32 W/m 0,0 km/h (0 Bft) 100,00 %
14.08.2022 07:40 18,2 C 17,8 C 14,4 C 86 % 1010,3 hPa 0,0 l/m 0 min 0 min 32 W/m 3,2 km/h (1 Bft) 95,74 %
14.08.2022 07:42 18,3 C 18,3 C 14,4 C 86 % 1010,3 hPa 0,0 l/m 0 min 0 min 33 W/m 3,2 km/h (1 Bft) 97,87 %
14.08.2022 07:44 18,3 C 18,3 C 14,4 C 86 % 1010,2 hPa 0,0 l/m 0 min 0 min 33 W/m 3,2 km/h (1 Bft) 95,65 %
14.08.2022 07:46 18,3 C 18,3 C 14,4 C 86 % 1010,2 hPa 0,0 l/m 0 min 0 min 33 W/m 3,2 km/h (1 Bft) 93,62 %
14.08.2022 07:48 18,4 C 18,3 C 14,4 C 86 % 1010,2 hPa 0,0 l/m 0 min 0 min 33 W/m 3,2 km/h (1 Bft) 95,74 %
14.08.2022 07:50 18,4 C 18,3 C 15,0 C 86 % 1010,2 hPa 0,0 l/m 0 min 0 min 33 W/m 3,2 km/h (1 Bft) 95,74 %
14.08.2022 07:52 18,4 C 18,3 C 15,0 C 86 % 1010,2 hPa 0,0 l/m 0 min 0 min 33 W/m 3,2 km/h (1 Bft) 95,74 %
14.08.2022 07:54 18,5 C 18,3 C 15,0 C 86 % 1010,2 hPa 0,0 l/m 0 min 0 min 34 W/m 3,2 km/h (1 Bft) 95,74 %
14.08.2022 07:56 18,5 C 18,3 C 15,0 C 86 % 1010,2 hPa 0,0 l/m 0 min 0 min 35 W/m 3,2 km/h (1 Bft) 95,65 %
14.08.2022 07:58 18,6 C 18,9 C 15,0 C 86 % 1010,2 hPa 0,0 l/m 0 min 0 min 35 W/m 3,2 km/h (1 Bft) 95,74 %
14.08.2022 08:00 18,6 C 18,9 C 15,0 C 86 % 1010,2 hPa 0,0 l/m 0 min 0 min 38 W/m 3,2 km/h (1 Bft) 95,74 %
14.08.2022 08:02 18,6 C 18,9 C 15,0 C 86 % 1010,2 hPa 0,0 l/m 0 min 0 min 39 W/m 3,2 km/h (1 Bft) 93,62 %
14.08.2022 08:04 18,7 C 18,9 C 15,6 C 87 % 1010,1 hPa 0,0 l/m 0 min 0 min 40 W/m 3,2 km/h (1 Bft) 93,62 %
14.08.2022 08:06 18,8 C 18,9 C 15,6 C 87 % 1010,1 hPa 0,0 l/m 0 min 0 min 40 W/m 3,2 km/h (1 Bft) 95,74 %
14.08.2022 08:08 18,9 C 19,4 C 15,6 C 86 % 1010,1 hPa 0,0 l/m 0 min 0 min 41 W/m 3,2 km/h (1 Bft) 95,65 %
14.08.2022 08:10 18,9 C 19,4 C 15,6 C 86 % 1010,1 hPa 0,0 l/m 0 min 0 min 42 W/m 3,2 km/h (1 Bft) 95,74 %
14.08.2022 08:12 19,1 C 20,0 C 16,1 C 86 % 1010,2 hPa 0,0 l/m 0 min 0 min 42 W/m 6,4 km/h (2 Bft) 89,36 %
14.08.2022 08:14 19,2 C 20,0 C 16,1 C 86 % 1010,2 hPa 0,0 l/m 0 min 0 min 44 W/m 3,2 km/h (1 Bft) 95,74 %
14.08.2022 08:16 19,2 C 20,0 C 16,1 C 86 % 1010,2 hPa 0,0 l/m 0 min 0 min 44 W/m 3,2 km/h (1 Bft) 91,49 %
14.08.2022 08:18 19,3 C 20,6 C 16,7 C 85 % 1010,2 hPa 0,0 l/m 0 min 0 min 45 W/m 3,2 km/h (1 Bft) 95,74 %
14.08.2022 08:20 19,4 C 20,6 C 16,7 C 85 % 1010,2 hPa 0,0 l/m 0 min 0 min 46 W/m 6,4 km/h (2 Bft) 93,48 %
14.08.2022 08:22 19,6 C 20,6 C 16,7 C 85 % 1010,2 hPa 0,0 l/m 0 min 0 min 47 W/m 6,4 km/h (2 Bft) 93,62 %
14.08.2022 08:24 19,8 C 21,1 C 17,2 C 84 % 1010,2 hPa 0,0 l/m 0 min 0 min 47 W/m 6,4 km/h (2 Bft) 95,74 %
14.08.2022 08:26 19,9 C 21,1 C 17,2 C 83 % 1010,2 hPa 0,0 l/m 0 min 0 min 49 W/m 6,4 km/h (2 Bft) 97,87 %
14.08.2022 08:28 20,1 C 21,1 C 17,2 C 83 % 1010,1 hPa 0,0 l/m 0 min 0 min 57 W/m 6,4 km/h (2 Bft) 97,87 %
14.08.2022 08:30 20,3 C 21,1 C 17,2 C 83 % 1010,2 hPa 0,0 l/m 0 min 0 min 61 W/m 6,4 km/h (2 Bft) 97,87 %
14.08.2022 08:32 20,4 C 21,7 C 17,2 C 82 % 1010,1 hPa 0,0 l/m 0 min 0 min 50 W/m 6,4 km/h (2 Bft) 97,83 %
14.08.2022 08:34 20,6 C 21,7 C 17,8 C 81 % 1010,1 hPa 0,0 l/m 0 min 0 min 73 W/m 6,4 km/h (2 Bft) 100,00 %
14.08.2022 08:36 20,8 C 21,7 C 17,8 C 80 % 1010,1 hPa 0,0 l/m 0 min 0 min 91 W/m 9,7 km/h (2 Bft) 97,87 %
14.08.2022 08:38 21,1 C 21,7 C 17,8 C 79 % 1010,1 hPa 0,0 l/m 0 min 0 min 53 W/m 6,4 km/h (2 Bft) 97,87 %
14.08.2022 08:40 21,2 C 21,7 C 17,8 C 79 % 1010,1 hPa 0,0 l/m 0 min 0 min 53 W/m 6,4 km/h (2 Bft) 95,74 %
14.08.2022 08:42 21,3 C 21,7 C 17,8 C 78 % 1010,1 hPa 0,0 l/m 0 min 0 min 53 W/m 9,7 km/h (2 Bft) 95,74 %
14.08.2022 08:44 21,4 C 22,2 C 17,8 C 78 % 1010,1 hPa 0,0 l/m 0 min 0 min 54 W/m 6,4 km/h (2 Bft) 97,83 %
14.08.2022 08:46 21,6 C 22,2 C 17,8 C 77 % 1010,1 hPa 0,0 l/m 0 min 0 min 142 W/m 12,9 km/h (3 Bft) 95,74 %
14.08.2022 08:48 21,8 C 22,2 C 18,3 C 77 % 1010,0 hPa 0,0 l/m 2 min 0 min 307 W/m 6,4 km/h (2 Bft) 97,87 %
14.08.2022 08:50 21,9 C 22,8 C 18,3 C 76 % 1010,0 hPa 0,0 l/m 2 min 0 min 329 W/m 16,1 km/h (3 Bft) 97,87 %
14.08.2022 08:52 22,1 C 24,4 C 18,3 C 75 % 1010,0 hPa 0,0 l/m 2 min 0 min 337 W/m 9,7 km/h (2 Bft) 97,87 %
14.08.2022 08:54 22,3 C 25,6 C 18,3 C 75 % 1010,1 hPa 0,0 l/m 2 min 0 min 344 W/m 12,9 km/h (3 Bft) 97,87 %
14.08.2022 08:56 22,5 C 27,2 C 18,3 C 74 % 1010,0 hPa 0,0 l/m 2 min 0 min 348 W/m 9,7 km/h (2 Bft) 97,83 %
14.08.2022 08:58 22,7 C 27,8 C 18,3 C 74 % 1010,0 hPa 0,0 l/m 2 min 0 min 353 W/m 16,1 km/h (3 Bft) 97,87 %
14.08.2022 09:00 22,8 C 27,8 C 18,3 C 73 % 1009,9 hPa 0,0 l/m 2 min 0 min 355 W/m 19,3 km/h (3 Bft) 97,87 %
14.08.2022 09:02 23,1 C 27,8 C 18,3 C 72 % 1009,9 hPa 0,0 l/m 2 min 0 min 355 W/m 16,1 km/h (3 Bft) 97,87 %
14.08.2022 09:04 23,2 C 27,8 C 18,9 C 72 % 1009,9 hPa 0,0 l/m 2 min 0 min 349 W/m 12,9 km/h (3 Bft) 97,87 %
14.08.2022 09:06 23,4 C 27,8 C 18,9 C 71 % 1009,9 hPa 0,0 l/m 2 min 0 min 344 W/m 6,4 km/h (2 Bft) 97,87 %
14.08.2022 09:08 23,6 C 28,3 C 18,9 C 71 % 1009,9 hPa 0,0 l/m 2 min 0 min 359 W/m 6,4 km/h (2 Bft) 100,00 %
14.08.2022 09:10 23,7 C 28,3 C 19,4 C 70 % 1009,9 hPa 0,0 l/m 2 min 0 min 371 W/m 9,7 km/h (2 Bft) 100,00 %
14.08.2022 09:12 23,8 C 28,3 C 19,4 C 70 % 1009,9 hPa 0,0 l/m 2 min 0 min 384 W/m 12,9 km/h (3 Bft) 100,00 %
14.08.2022 09:14 24,0 C 28,9 C 20,0 C 69 % 1009,8 hPa 0,0 l/m 2 min 0 min 400 W/m 9,7 km/h (2 Bft) 100,00 %
14.08.2022 09:16 24,2 C 28,9 C 20,0 C 69 % 1009,8 hPa 0,0 l/m 2 min 0 min 410 W/m 6,4 km/h (2 Bft) 100,00 %
14.08.2022 09:18 24,3 C 28,9 C 20,0 C 68 % 1009,8 hPa 0,0 l/m 2 min 0 min 415 W/m 12,9 km/h (3 Bft) 100,00 %
14.08.2022 09:20 24,4 C 29,4 C 20,0 C 68 % 1009,8 hPa 0,0 l/m 2 min 0 min 420 W/m 6,4 km/h (2 Bft) 100,00 %
14.08.2022 09:22 24,6 C 30,0 C 20,6 C 68 % 1009,8 hPa 0,0 l/m 2 min 0 min 426 W/m 6,4 km/h (2 Bft) 100,00 %
14.08.2022 09:24 24,7 C 29,4 C 20,6 C 68 % 1009,8 hPa 0,0 l/m 2 min 0 min 431 W/m 9,7 km/h (2 Bft) 95,74 %
14.08.2022 09:26 24,8 C 29,4 C 20,6 C 67 % 1009,8 hPa 0,0 l/m 2 min 0 min 437 W/m 6,4 km/h (2 Bft) 100,00 %
14.08.2022 09:28 25,0 C 30,0 C 20,6 C 67 % 1009,8 hPa 0,0 l/m 2 min 0 min 443 W/m 6,4 km/h (2 Bft) 100,00 %
14.08.2022 09:30 25,1 C 30,0 C 20,6 C 67 % 1009,8 hPa 0,0 l/m 2 min 0 min 448 W/m 9,7 km/h (2 Bft) 100,00 %
14.08.2022 09:32 25,2 C 30,0 C 20,6 C 66 % 1009,7 hPa 0,0 l/m 2 min 0 min 454 W/m 6,4 km/h (2 Bft) 100,00 %
14.08.2022 09:34 25,3 C 30,0 C 20,6 C 66 % 1009,7 hPa 0,0 l/m 2 min 0 min 460 W/m 9,7 km/h (2 Bft) 97,87 %
14.08.2022 09:36 25,3 C 29,4 C 20,6 C 65 % 1009,7 hPa 0,0 l/m 2 min 0 min 465 W/m 9,7 km/h (2 Bft) 100,00 %
14.08.2022 09:38 25,4 C 29,4 C 20,6 C 66 % 1009,6 hPa 0,0 l/m 2 min 0 min 470 W/m 3,2 km/h (1 Bft) 97,87 %
14.08.2022 09:40 25,5 C 29,4 C 20,6 C 65 % 1009,6 hPa 0,0 l/m 2 min 0 min 476 W/m 6,4 km/h (2 Bft) 100,00 %
14.08.2022 09:42 25,6 C 28,9 C 20,6 C 65 % 1009,6 hPa 0,0 l/m 2 min 0 min 483 W/m 6,4 km/h (2 Bft) 100,00 %
14.08.2022 09:44 25,6 C 28,3 C 20,6 C 65 % 1009,6 hPa 0,0 l/m 2 min 0 min 489 W/m 16,1 km/h (3 Bft) 100,00 %
14.08.2022 09:46 25,7 C 28,3 C 20,6 C 65 % 1009,6 hPa 0,0 l/m 2 min 0 min 496 W/m 9,7 km/h (2 Bft) 100,00 %
14.08.2022 09:48 25,8 C 27,8 C 20,6 C 64 % 1009,5 hPa 0,0 l/m 2 min 0 min 503 W/m 12,9 km/h (3 Bft) 100,00 %
14.08.2022 09:50 25,8 C 27,8 C 20,6 C 64 % 1009,6 hPa 0,0 l/m 2 min 0 min 480 W/m 12,9 km/h (3 Bft) 100,00 %
14.08.2022 09:52 25,9 C 27,2 C 20,6 C 64 % 1009,6 hPa 0,0 l/m 2 min 0 min 468 W/m 6,4 km/h (2 Bft) 100,00 %
14.08.2022 09:54 25,9 C 26,7 C 20,6 C 64 % 1009,5 hPa 0,0 l/m 2 min 0 min 455 W/m 6,4 km/h (2 Bft) 97,87 %
14.08.2022 09:56 25,9 C 26,7 C 20,6 C 64 % 1009,5 hPa 0,0 l/m 2 min 0 min 434 W/m 12,9 km/h (3 Bft) 100,00 %
14.08.2022 09:58 26,0 C 26,7 C 20,6 C 64 % 1009,5 hPa 0,0 l/m 2 min 0 min 389 W/m 3,2 km/h (1 Bft) 100,00 %
14.08.2022 10:00 26,1 C 26,7 C 20,6 C 63 % 1009,4 hPa 0,0 l/m 2 min 0 min 412 W/m 12,9 km/h (3 Bft) 100,00 %
14.08.2022 10:02 26,1 C 26,1 C 20,6 C 63 % 1009,4 hPa 0,0 l/m 2 min 0 min 297 W/m 6,4 km/h (2 Bft) 100,00 %
14.08.2022 10:04 26,1 C 26,1 C 20,6 C 63 % 1009,4 hPa 0,0 l/m 2 min 0 min 338 W/m 16,1 km/h (3 Bft) 100,00 %
14.08.2022 10:06 26,1 C 26,1 C 20,6 C 64 % 1009,5 hPa 0,0 l/m 0 min 0 min 88 W/m 6,4 km/h (2 Bft) 100,00 %
14.08.2022 10:08 26,2 C 26,1 C 20,6 C 64 % 1009,5 hPa 0,0 l/m 0 min 0 min 118 W/m 6,4 km/h (2 Bft) 100,00 %
14.08.2022 10:10 26,2 C 26,1 C 20,6 C 63 % 1009,5 hPa 0,0 l/m 0 min 0 min 158 W/m 12,9 km/h (3 Bft) 100,00 %
14.08.2022 10:12 26,2 C 26,1 C 20,6 C 64 % 1009,5 hPa 0,0 l/m 0 min 0 min 195 W/m 6,4 km/h (2 Bft) 100,00 %
14.08.2022 10:14 26,2 C 26,1 C 21,1 C 64 % 1009,5 hPa 0,0 l/m 2 min 0 min 398 W/m 16,1 km/h (3 Bft) 100,00 %
14.08.2022 10:16 26,2 C 26,1 C 21,1 C 63 % 1009,6 hPa 0,0 l/m 2 min 0 min 498 W/m 9,7 km/h (2 Bft) 100,00 %
14.08.2022 10:18 26,3 C 26,1 C 21,1 C 63 % 1009,6 hPa 0,0 l/m 2 min 0 min 552 W/m 12,9 km/h (3 Bft) 100,00 %
14.08.2022 10:20 26,3 C 26,1 C 21,1 C 63 % 1009,6 hPa 0,0 l/m 2 min 0 min 554 W/m 6,4 km/h (2 Bft) 100,00 %
14.08.2022 10:22 26,3 C 26,7 C 21,1 C 63 % 1009,5 hPa 0,0 l/m 2 min 0 min 561 W/m 6,4 km/h (2 Bft) 97,87 %
14.08.2022 10:24 26,3 C 26,7 C 21,1 C 63 % 1009,5 hPa 0,0 l/m 2 min 0 min 565 W/m 9,7 km/h (2 Bft) 97,87 %
14.08.2022 10:26 26,3 C 27,2 C 21,1 C 63 % 1009,5 hPa 0,0 l/m 2 min 0 min 576 W/m 9,7 km/h (2 Bft) 97,87 %
14.08.2022 10:28 26,4 C 27,8 C 21,1 C 63 % 1009,5 hPa 0,0 l/m 2 min 0 min 583 W/m 12,9 km/h (3 Bft) 95,74 %
14.08.2022 10:30 26,4 C 28,9 C 21,1 C 63 % 1009,5 hPa 0,0 l/m 2 min 0 min 591 W/m 9,7 km/h (2 Bft) 97,87 %
14.08.2022 10:32 26,5 C 28,9 C 21,1 C 63 % 1009,5 hPa 0,0 l/m 2 min 0 min 581 W/m 6,4 km/h (2 Bft) 95,65 %
14.08.2022 10:34 26,6 C 28,3 C 21,7 C 62 % 1009,5 hPa 0,0 l/m 2 min 0 min 584 W/m 12,9 km/h (3 Bft) 95,74 %
14.08.2022 10:36 26,6 C 28,3 C 21,7 C 62 % 1009,4 hPa 0,0 l/m 2 min 0 min 578 W/m 9,7 km/h (2 Bft) 91,49 %
14.08.2022 10:38 26,6 C 27,8 C 21,7 C 63 % 1009,4 hPa 0,0 l/m 2 min 0 min 556 W/m 6,4 km/h (2 Bft) 93,62 %
14.08.2022 10:40 26,7 C 27,2 C 21,7 C 63 % 1009,4 hPa 0,0 l/m 2 min 0 min 570 W/m 9,7 km/h (2 Bft) 93,62 %
14.08.2022 10:42 26,7 C 27,2 C 21,7 C 63 % 1009,4 hPa 0,0 l/m 2 min 0 min 576 W/m 12,9 km/h (3 Bft) 95,74 %
14.08.2022 10:44 26,7 C 27,2 C 21,7 C 62 % 1009,4 hPa 0,0 l/m 2 min 0 min 586 W/m 12,9 km/h (3 Bft) 95,65 %
14.08.2022 10:46 26,8 C 27,2 C 21,7 C 62 % 1009,4 hPa 0,0 l/m 2 min 0 min 604 W/m 9,7 km/h (2 Bft) 93,62 %
14.08.2022 10:48 26,8 C 27,2 C 21,7 C 63 % 1009,4 hPa 0,0 l/m 2 min 0 min 614 W/m 6,4 km/h (2 Bft) 93,62 %
14.08.2022 10:50 26,8 C 27,2 C 21,7 C 63 % 1009,4 hPa 0,0 l/m 2 min 0 min 628 W/m 6,4 km/h (2 Bft) 93,62 %
14.08.2022 10:52 26,9 C 27,2 C 21,7 C 63 % 1009,4 hPa 0,0 l/m 2 min 0 min 638 W/m 6,4 km/h (2 Bft) 89,36 %
14.08.2022 10:54 27,0 C 27,2 C 21,7 C 62 % 1009,4 hPa 0,0 l/m 2 min 0 min 641 W/m 6,4 km/h (2 Bft) 91,49 %
14.08.2022 10:56 27,1 C 27,2 C 21,7 C 61 % 1009,4 hPa 0,0 l/m 2 min 0 min 643 W/m 12,9 km/h (3 Bft) 93,48 %
14.08.2022 10:58 27,1 C 26,7 C 22,2 C 60 % 1009,4 hPa 0,0 l/m 2 min 0 min 650 W/m 9,7 km/h (2 Bft) 91,49 %
14.08.2022 11:00 27,2 C 26,7 C 22,2 C 60 % 1009,3 hPa 0,0 l/m 2 min 0 min 645 W/m 6,4 km/h (2 Bft) 93,62 %
14.08.2022 11:02 27,2 C 26,7 C 22,2 C 61 % 1009,4 hPa 0,0 l/m 2 min 0 min 658 W/m 6,4 km/h (2 Bft) 91,49 %
14.08.2022 11:04 27,3 C 27,2 C 22,2 C 61 % 1009,3 hPa 0,0 l/m 2 min 0 min 667 W/m 6,4 km/h (2 Bft) 91,49 %
14.08.2022 11:06 27,3 C 27,8 C 22,2 C 61 % 1009,2 hPa 0,0 l/m 2 min 0 min 681 W/m 9,7 km/h (2 Bft) 93,62 %
14.08.2022 11:08 27,4 C 27,8 C 22,2 C 62 % 1009,3 hPa 0,0 l/m 2 min 0 min 683 W/m 9,7 km/h (2 Bft) 95,65 %
14.08.2022 11:10 27,5 C 27,8 C 22,2 C 61 % 1009,3 hPa 0,0 l/m 2 min 0 min 681 W/m 6,4 km/h (2 Bft) 97,87 %
14.08.2022 11:12 27,6 C 27,8 C 22,8 C 62 % 1009,3 hPa 0,0 l/m 2 min 0 min 680 W/m 6,4 km/h (2 Bft) 97,87 %
14.08.2022 11:14 27,7 C 27,8 C 22,8 C 60 % 1009,3 hPa 0,0 l/m 2 min 0 min 687 W/m 12,9 km/h (3 Bft) 97,87 %
14.08.2022 11:16 27,7 C 27,8 C 22,2 C 60 % 1009,3 hPa 0,0 l/m 2 min 0 min 692 W/m 6,4 km/h (2 Bft) 93,62 %
14.08.2022 11:18 27,8 C 27,8 C 22,8 C 60 % 1009,3 hPa 0,0 l/m 2 min 0 min 696 W/m 6,4 km/h (2 Bft) 97,87 %
14.08.2022 11:20 27,9 C 28,9 C 22,8 C 60 % 1009,3 hPa 0,0 l/m 2 min 0 min 700 W/m 6,4 km/h (2 Bft) 97,83 %
14.08.2022 11:22 27,9 C 30,0 C 22,8 C 59 % 1009,3 hPa 0,0 l/m 2 min 0 min 698 W/m 12,9 km/h (3 Bft) 97,87 %
14.08.2022 11:24 28,1 C 30,6 C 22,8 C 59 % 1009,3 hPa 0,0 l/m 2 min 0 min 698 W/m 6,4 km/h (2 Bft) 97,87 %
14.08.2022 11:26 28,1 C 31,1 C 23,3 C 58 % 1009,2 hPa 0,0 l/m 2 min 0 min 710 W/m 12,9 km/h (3 Bft) 100,00 %
14.08.2022 11:28 28,2 C 31,7 C 23,3 C 57 % 1009,1 hPa 0,0 l/m 2 min 0 min 721 W/m 9,7 km/h (2 Bft) 97,87 %
14.08.2022 11:30 28,2 C 31,7 C 23,3 C 57 % 1009,2 hPa 0,0 l/m 2 min 0 min 731 W/m 12,9 km/h (3 Bft) 97,87 %
14.08.2022 11:32 28,3 C 31,1 C 23,3 C 58 % 1009,1 hPa 0,0 l/m 2 min 0 min 739 W/m 6,4 km/h (2 Bft) 97,83 %
14.08.2022 11:34 28,4 C 31,1 C 23,9 C 57 % 1009,1 hPa 0,0 l/m 2 min 0 min 741 W/m 12,9 km/h (3 Bft) 97,87 %
14.08.2022 11:36 28,4 C 30,6 C 23,9 C 57 % 1009,1 hPa 0,0 l/m 2 min 0 min 726 W/m 6,4 km/h (2 Bft) 100,00 %
14.08.2022 11:38 28,4 C 31,1 C 24,4 C 56 % 1009,1 hPa 0,0 l/m 2 min 0 min 700 W/m 9,7 km/h (2 Bft) 97,87 %
14.08.2022 11:40 28,6 C 31,1 C 24,4 C 57 % 1009,0 hPa 0,0 l/m 2 min 0 min 685 W/m 9,7 km/h (2 Bft) 100,00 %
14.08.2022 11:42 28,6 C 31,1 C 24,4 C 57 % 1008,9 hPa 0,0 l/m 2 min 0 min 599 W/m 6,4 km/h (2 Bft) 97,87 %
14.08.2022 11:44 28,6 C 30,0 C 23,9 C 57 % 1008,9 hPa 0,0 l/m 2 min 0 min 474 W/m 6,4 km/h (2 Bft) 97,83 %
14.08.2022 11:46 28,6 C 29,4 C 23,9 C 57 % 1008,8 hPa 0,0 l/m 2 min 0 min 478 W/m 9,7 km/h (2 Bft) 100,00 %
14.08.2022 11:48 28,6 C 28,9 C 23,3 C 58 % 1008,8 hPa 0,0 l/m 2 min 0 min 663 W/m 12,9 km/h (3 Bft) 97,87 %
14.08.2022 11:50 28,7 C 29,4 C 23,3 C 57 % 1008,8 hPa 0,0 l/m 2 min 0 min 750 W/m 6,4 km/h (2 Bft) 100,00 %
14.08.2022 11:52 28,7 C 29,4 C 23,3 C 57 % 1008,8 hPa 0,0 l/m 2 min 0 min 759 W/m 12,9 km/h (3 Bft) 100,00 %
14.08.2022 11:54 28,8 C 29,4 C 23,9 C 56 % 1008,8 hPa 0,0 l/m 2 min 0 min 718 W/m 16,1 km/h (3 Bft) 97,83 %
14.08.2022 11:56 28,8 C 29,4 C 23,9 C 57 % 1008,8 hPa 0,0 l/m 2 min 0 min 736 W/m 6,4 km/h (2 Bft) 100,00 %
14.08.2022 11:58 28,9 C 29,4 C 23,9 C 55 % 1008,7 hPa 0,0 l/m 2 min 0 min 770 W/m 12,9 km/h (3 Bft) 100,00 %
14.08.2022 12:00 29,0 C 30,0 C 24,4 C 56 % 1008,7 hPa 0,0 l/m 2 min 0 min 777 W/m 12,9 km/h (3 Bft) 100,00 %
14.08.2022 12:02 29,2 C 30,6 C 24,4 C 55 % 1008,7 hPa 0,0 l/m 2 min 0 min 777 W/m 6,4 km/h (2 Bft) 100,00 %
14.08.2022 12:04 29,3 C 30,6 C 24,4 C 53 % 1008,7 hPa 0,0 l/m 2 min 0 min 779 W/m 16,1 km/h (3 Bft) 100,00 %
14.08.2022 12:08 29,5 C 32,2 C 24,4 C 53 % 1008,7 hPa 0,0 l/m 4 min 0 min 782 W/m 12,9 km/h (3 Bft) 100,00 %
14.08.2022 12:10 29,6 C 32,8 C 25,0 C 53 % 1008,7 hPa 0,0 l/m 2 min 0 min 789 W/m 9,7 km/h (2 Bft) 97,87 %
14.08.2022 12:12 29,7 C 33,9 C 25,0 C 53 % 1008,7 hPa 0,0 l/m 2 min 0 min 753 W/m 6,4 km/h (2 Bft) 100,00 %
14.08.2022 12:14 29,8 C 34,4 C 25,6 C 52 % 1008,6 hPa 0,0 l/m 2 min 0 min 772 W/m 12,9 km/h (3 Bft) 100,00 %
14.08.2022 12:16 29,9 C 35,0 C 26,1 C 52 % 1008,6 hPa 0,0 l/m 2 min 0 min 765 W/m 9,7 km/h (2 Bft) 97,83 %
14.08.2022 12:18 29,9 C 35,6 C 26,1 C 53 % 1008,6 hPa 0,0 l/m 2 min 0 min 782 W/m 6,4 km/h (2 Bft) 100,00 %
14.08.2022 12:20 30,0 C 36,1 C 26,7 C 51 % 1008,5 hPa 0,0 l/m 2 min 0 min 798 W/m 16,1 km/h (3 Bft) 97,87 %
14.08.2022 12:22 30,1 C 36,1 C 27,8 C 52 % 1008,5 hPa 0,0 l/m 2 min 0 min 806 W/m 9,7 km/h (2 Bft) 100,00 %
14.08.2022 12:24 30,1 C 36,1 C 27,8 C 50 % 1008,5 hPa 0,0 l/m 2 min 0 min 809 W/m 12,9 km/h (3 Bft) 97,87 %
14.08.2022 12:26 30,2 C 36,7 C 28,3 C 51 % 1008,4 hPa 0,0 l/m 2 min 0 min 811 W/m 6,4 km/h (2 Bft) 97,87 %
14.08.2022 12:28 30,3 C 36,7 C 29,4 C 52 % 1008,4 hPa 0,0 l/m 2 min 0 min 739 W/m 6,4 km/h (2 Bft) 97,83 %
14.08.2022 12:30 30,4 C 37,2 C 30,0 C 51 % 1008,4 hPa 0,0 l/m 2 min 0 min 768 W/m 9,7 km/h (2 Bft) 97,87 %
14.08.2022 12:32 30,6 C 37,8 C 30,6 C 52 % 1008,3 hPa 0,0 l/m 2 min 0 min 807 W/m 6,4 km/h (2 Bft) 97,87 %
14.08.2022 12:34 30,7 C 37,8 C 31,1 C 51 % 1008,3 hPa 0,0 l/m 2 min 0 min 810 W/m 6,4 km/h (2 Bft) 97,87 %
14.08.2022 12:36 30,8 C 38,3 C 31,1 C 50 % 1008,4 hPa 0,0 l/m 2 min 0 min 817 W/m 6,4 km/h (2 Bft) 95,74 %
14.08.2022 12:38 30,9 C 37,8 C 31,1 C 49 % 1008,4 hPa 0,0 l/m 2 min 0 min 814 W/m 16,1 km/h (3 Bft) 97,87 %
14.08.2022 12:40 31,1 C 37,8 C 30,6 C 49 % 1008,4 hPa 0,0 l/m 2 min 0 min 820 W/m 9,7 km/h (2 Bft) 97,83 %
14.08.2022 12:42 31,1 C 37,8 C 30,0 C 48 % 1008,4 hPa 0,0 l/m 2 min 0 min 827 W/m 9,7 km/h (2 Bft) 95,74 %
14.08.2022 12:44 31,2 C 37,8 C 29,4 C 48 % 1008,3 hPa 0,0 l/m 2 min 0 min 832 W/m 9,7 km/h (2 Bft) 97,87 %
14.08.2022 12:46 31,2 C 37,8 C 27,8 C 47 % 1008,2 hPa 0,0 l/m 2 min 0 min 837 W/m 6,4 km/h (2 Bft) 95,74 %
14.08.2022 12:48 31,2 C 38,3 C 27,8 C 47 % 1008,2 hPa 0,0 l/m 2 min 0 min 834 W/m 9,7 km/h (2 Bft) 97,87 %
14.08.2022 12:50 31,3 C 38,3 C 26,7 C 47 % 1008,2 hPa 0,0 l/m 2 min 0 min 835 W/m 9,7 km/h (2 Bft) 97,87 %
14.08.2022 12:52 31,3 C 37,2 C 26,7 C 47 % 1008,2 hPa 0,0 l/m 2 min 0 min 835 W/m 9,7 km/h (2 Bft) 100,00 %
14.08.2022 12:54 31,4 C 37,2 C 26,1 C 48 % 1008,2 hPa 0,0 l/m 2 min 0 min 838 W/m 12,9 km/h (3 Bft) 97,87 %
14.08.2022 12:56 31,4 C 35,0 C 26,1 C 46 % 1008,1 hPa 0,0 l/m 2 min 0 min 838 W/m 12,9 km/h (3 Bft) 100,00 %
14.08.2022 12:58 31,5 C 34,4 C 26,1 C 47 % 1008,1 hPa 0,0 l/m 2 min 0 min 838 W/m 6,4 km/h (2 Bft) 100,00 %
14.08.2022 13:00 31,6 C 33,3 C 26,1 C 46 % 1008,1 hPa 0,0 l/m 2 min 0 min 840 W/m 6,4 km/h (2 Bft) 100,00 %
14.08.2022 13:02 31,6 C 32,8 C 26,1 C 46 % 1008,0 hPa 0,0 l/m 2 min 0 min 840 W/m 9,7 km/h (2 Bft) 95,74 %
14.08.2022 13:04 31,6 C 33,3 C 26,1 C 47 % 1008,1 hPa 0,0 l/m 2 min 0 min 841 W/m 9,7 km/h (2 Bft) 97,83 %
14.08.2022 13:06 31,6 C 33,3 C 26,1 C 46 % 1008,1 hPa 0,0 l/m 2 min 0 min 841 W/m 9,7 km/h (2 Bft) 97,87 %
14.08.2022 13:08 31,7 C 32,8 C 25,6 C 46 % 1008,0 hPa 0,0 l/m 2 min 0 min 836 W/m 6,4 km/h (2 Bft) 97,87 %
14.08.2022 13:10 31,7 C 32,8 C 25,6 C 46 % 1008,0 hPa 0,0 l/m 2 min 0 min 828 W/m 6,4 km/h (2 Bft) 97,87 %
14.08.2022 13:12 31,7 C 32,2 C 25,6 C 46 % 1007,9 hPa 0,0 l/m 2 min 0 min 829 W/m 9,7 km/h (2 Bft) 97,87 %
14.08.2022 13:14 31,7 C 31,7 C 26,1 C 45 % 1008,0 hPa 0,0 l/m 2 min 0 min 836 W/m 12,9 km/h (3 Bft) 95,74 %
14.08.2022 13:16 31,7 C 31,1 C 26,1 C 44 % 1007,9 hPa 0,0 l/m 2 min 0 min 828 W/m 16,1 km/h (3 Bft) 93,48 %
14.08.2022 13:18 31,7 C 31,1 C 26,1 C 44 % 1007,9 hPa 0,0 l/m 2 min 0 min 786 W/m 12,9 km/h (3 Bft) 93,62 %
14.08.2022 13:20 31,6 C 30,6 C 26,1 C 45 % 1008,0 hPa 0,0 l/m 2 min 0 min 690 W/m 16,1 km/h (3 Bft) 93,62 %
14.08.2022 13:22 31,5 C 30,6 C 25,6 C 45 % 1007,9 hPa 0,0 l/m 2 min 0 min 753 W/m 12,9 km/h (3 Bft) 95,74 %
14.08.2022 13:24 31,5 C 30,6 C 25,6 C 46 % 1008,0 hPa 0,0 l/m 2 min 0 min 839 W/m 9,7 km/h (2 Bft) 95,74 %
14.08.2022 13:26 31,6 C 31,1 C 25,6 C 45 % 1007,9 hPa 0,0 l/m 2 min 0 min 853 W/m 6,4 km/h (2 Bft) 95,74 %
14.08.2022 13:28 31,6 C 31,1 C 25,6 C 46 % 1007,9 hPa 0,0 l/m 2 min 0 min 860 W/m 6,4 km/h (2 Bft) 95,65 %
14.08.2022 13:30 31,6 C 31,7 C 26,1 C 45 % 1007,9 hPa 0,0 l/m 2 min 0 min 859 W/m 6,4 km/h (2 Bft) 95,74 %
14.08.2022 13:32 31,7 C 31,7 C 26,1 C 46 % 1007,9 hPa 0,0 l/m 2 min 0 min 858 W/m 6,4 km/h (2 Bft) 93,62 %
14.08.2022 13:34 31,8 C 32,2 C 26,1 C 45 % 1007,9 hPa 0,0 l/m 2 min 0 min 854 W/m 6,4 km/h (2 Bft) 95,74 %
14.08.2022 13:36 31,8 C 32,8 C 26,1 C 46 % 1007,8 hPa 0,0 l/m 2 min 0 min 853 W/m 6,4 km/h (2 Bft) 95,74 %
14.08.2022 13:38 31,8 C 32,8 C 26,1 C 45 % 1007,8 hPa 0,0 l/m 2 min 0 min 849 W/m 6,4 km/h (2 Bft) 95,74 %
14.08.2022 13:40 31,9 C 35,0 C 26,1 C 45 % 1007,8 hPa 0,0 l/m 2 min 0 min 851 W/m 6,4 km/h (2 Bft) 95,65 %
14.08.2022 13:42 31,9 C 35,6 C 26,1 C 45 % 1007,7 hPa 0,0 l/m 2 min 0 min 870 W/m 9,7 km/h (2 Bft) 95,74 %
14.08.2022 13:44 31,9 C 36,7 C 26,1 C 44 % 1007,7 hPa 0,0 l/m 2 min 0 min 868 W/m 9,7 km/h (2 Bft) 95,74 %
14.08.2022 13:46 32,1 C 36,7 C 26,1 C 44 % 1007,7 hPa 0,0 l/m 2 min 0 min 847 W/m 16,1 km/h (3 Bft) 95,74 %
14.08.2022 13:48 32,1 C 37,2 C 26,1 C 44 % 1007,7 hPa 0,0 l/m 2 min 0 min 876 W/m 9,7 km/h (2 Bft) 95,74 %
14.08.2022 13:50 32,1 C 38,3 C 26,1 C 44 % 1007,6 hPa 0,0 l/m 2 min 0 min 861 W/m 6,4 km/h (2 Bft) 93,62 %
14.08.2022 13:52 32,1 C 38,9 C 26,1 C 44 % 1007,6 hPa 0,0 l/m 2 min 0 min 841 W/m 6,4 km/h (2 Bft) 95,65 %
14.08.2022 13:54 32,2 C 38,3 C 25,6 C 43 % 1007,6 hPa 0,0 l/m 2 min 0 min 835 W/m 9,7 km/h (2 Bft) 97,87 %
14.08.2022 13:56 32,2 C 38,3 C 26,1 C 45 % 1007,6 hPa 0,0 l/m 2 min 0 min 834 W/m 6,4 km/h (2 Bft) 100,00 %
14.08.2022 13:58 32,3 C 38,9 C 26,1 C 44 % 1007,6 hPa 0,0 l/m 2 min 0 min 831 W/m 12,9 km/h (3 Bft) 95,74 %
14.08.2022 14:00 32,3 C 38,9 C 26,1 C 44 % 1007,6 hPa 0,0 l/m 2 min 0 min 843 W/m 9,7 km/h (2 Bft) 100,00 %
14.08.2022 14:02 32,4 C 39,4 C 26,1 C 43 % 1007,5 hPa 0,0 l/m 2 min 0 min 852 W/m 6,4 km/h (2 Bft) 100,00 %
14.08.2022 14:04 32,4 C 38,3 C 26,1 C 43 % 1007,5 hPa 0,0 l/m 2 min 0 min 868 W/m 16,1 km/h (3 Bft) 100,00 %
14.08.2022 14:06 32,4 C 39,4 C 26,1 C 43 % 1007,5 hPa 0,0 l/m 2 min 0 min 861 W/m 9,7 km/h (2 Bft) 97,87 %
14.08.2022 14:08 32,4 C 39,4 C 26,1 C 42 % 1007,5 hPa 0,0 l/m 2 min 0 min 844 W/m 6,4 km/h (2 Bft) 95,74 %
14.08.2022 14:10 32,4 C 39,4 C 26,1 C 44 % 1007,4 hPa 0,0 l/m 2 min 0 min 837 W/m 6,4 km/h (2 Bft) 97,87 %
14.08.2022 14:12 32,4 C 39,4 C 26,1 C 44 % 1007,3 hPa 0,0 l/m 2 min 0 min 839 W/m 12,9 km/h (3 Bft) 97,87 %
14.08.2022 14:14 32,5 C 39,4 C 26,7 C 44 % 1007,3 hPa 0,0 l/m 2 min 0 min 834 W/m 9,7 km/h (2 Bft) 97,87 %
14.08.2022 14:16 32,6 C 40,0 C 26,7 C 44 % 1007,3 hPa 0,0 l/m 2 min 0 min 834 W/m 9,7 km/h (2 Bft) 95,65 %
14.08.2022 14:18 32,6 C 40,0 C 26,7 C 44 % 1007,3 hPa 0,0 l/m 2 min 0 min 839 W/m 9,7 km/h (2 Bft) 97,67 %
14.08.2022 14:20 32,6 C 40,6 C 26,1 C 43 % 1007,2 hPa 0,0 l/m 2 min 0 min 848 W/m 6,4 km/h (2 Bft) 97,87 %
14.08.2022 14:22 32,7 C 40,6 C 26,7 C 45 % 1007,2 hPa 0,0 l/m 2 min 0 min 854 W/m 12,9 km/h (3 Bft) 98,00 %
14.08.2022 14:24 32,7 C 40,0 C 26,7 C 42 % 1007,2 hPa 0,0 l/m 2 min 0 min 851 W/m 9,7 km/h (2 Bft) 97,87 %
14.08.2022 14:26 32,8 C 40,0 C 26,7 C 42 % 1007,1 hPa 0,0 l/m 2 min 0 min 840 W/m 6,4 km/h (2 Bft) 97,87 %
14.08.2022 14:28 32,9 C 40,0 C 26,7 C 42 % 1007,1 hPa 0,0 l/m 2 min 0 min 846 W/m 12,9 km/h (3 Bft) 97,87 %
14.08.2022 14:30 32,9 C 39,4 C 26,7 C 41 % 1007,1 hPa 0,0 l/m 2 min 0 min 852 W/m 12,9 km/h (3 Bft) 97,83 %
14.08.2022 14:32 33,0 C 38,3 C 26,7 C 41 % 1007,1 hPa 0,0 l/m 2 min 0 min 828 W/m 12,9 km/h (3 Bft) 97,87 %
14.08.2022 14:34 33,1 C 38,9 C 27,2 C 42 % 1007,1 hPa 0,0 l/m 2 min 0 min 686 W/m 9,7 km/h (2 Bft) 97,87 %
14.08.2022 14:36 33,1 C 38,9 C 27,2 C 41 % 1007,1 hPa 0,0 l/m 2 min 0 min 837 W/m 6,4 km/h (2 Bft) 97,87 %
14.08.2022 14:38 33,2 C 38,9 C 27,2 C 40 % 1007,1 hPa 0,0 l/m 2 min 0 min 847 W/m 12,9 km/h (3 Bft) 100,00 %
14.08.2022 14:40 33,2 C 38,9 C 27,2 C 40 % 1006,9 hPa 0,0 l/m 2 min 0 min 834 W/m 16,1 km/h (3 Bft) 100,00 %
14.08.2022 14:42 33,2 C 40,0 C 26,7 C 40 % 1006,9 hPa 0,0 l/m 2 min 0 min 845 W/m 6,4 km/h (2 Bft) 100,00 %
14.08.2022 14:44 33,2 C 40,6 C 26,7 C 41 % 1006,8 hPa 0,0 l/m 2 min 0 min 852 W/m 9,7 km/h (2 Bft) 100,00 %
14.08.2022 14:46 33,2 C 41,1 C 27,2 C 40 % 1006,8 hPa 0,0 l/m 2 min 0 min 846 W/m 9,7 km/h (2 Bft) 100,00 %
14.08.2022 14:48 33,3 C 41,1 C 27,2 C 41 % 1006,7 hPa 0,0 l/m 2 min 0 min 849 W/m 9,7 km/h (2 Bft) 100,00 %
14.08.2022 14:50 33,3 C 41,7 C 27,2 C 42 % 1006,7 hPa 0,0 l/m 2 min 0 min 852 W/m 16,1 km/h (3 Bft) 97,87 %
14.08.2022 14:52 33,3 C 40,6 C 27,2 C 41 % 1006,6 hPa 0,0 l/m 2 min 0 min 836 W/m 9,7 km/h (2 Bft) 100,00 %
14.08.2022 14:54 33,4 C 40,0 C 27,2 C 41 % 1006,6 hPa 0,0 l/m 2 min 0 min 802 W/m 6,4 km/h (2 Bft) 100,00 %
14.08.2022 14:56 33,4 C 39,4 C 27,2 C 40 % 1006,5 hPa 0,0 l/m 2 min 0 min 788 W/m 9,7 km/h (2 Bft) 100,00 %
14.08.2022 14:58 33,4 C 40,0 C 27,2 C 41 % 1006,6 hPa 0,0 l/m 2 min 0 min 788 W/m 9,7 km/h (2 Bft) 100,00 %
14.08.2022 15:00 33,4 C 39,4 C 27,2 C 40 % 1006,5 hPa 0,0 l/m 2 min 0 min 783 W/m 12,9 km/h (3 Bft) 100,00 %
14.08.2022 15:02 33,4 C 39,4 C 27,2 C 40 % 1006,5 hPa 0,0 l/m 2 min 0 min 778 W/m 12,9 km/h (3 Bft) 100,00 %
14.08.2022 15:04 33,5 C 38,9 C 27,2 C 39 % 1006,5 hPa 0,0 l/m 2 min 0 min 785 W/m 9,7 km/h (2 Bft) 100,00 %
14.08.2022 15:06 33,5 C 39,4 C 27,2 C 40 % 1006,5 hPa 0,0 l/m 2 min 0 min 788 W/m 6,4 km/h (2 Bft) 100,00 %
14.08.2022 15:08 33,5 C 39,4 C 27,2 C 39 % 1006,4 hPa 0,0 l/m 2 min 0 min 798 W/m 9,7 km/h (2 Bft) 100,00 %
14.08.2022 15:10 33,5 C 39,4 C 27,2 C 39 % 1006,4 hPa 0,0 l/m 2 min 0 min 803 W/m 6,4 km/h (2 Bft) 100,00 %
14.08.2022 15:12 33,6 C 38,9 C 27,2 C 39 % 1006,5 hPa 0,0 l/m 2 min 0 min 805 W/m 6,4 km/h (2 Bft) 100,00 %
14.08.2022 15:14 33,6 C 38,9 C 27,8 C 39 % 1006,5 hPa 0,0 l/m 2 min 0 min 797 W/m 12,9 km/h (3 Bft) 100,00 %
14.08.2022 15:16 33,7 C 38,9 C 27,8 C 39 % 1006,4 hPa 0,0 l/m 2 min 0 min 837 W/m 6,4 km/h (2 Bft) 100,00 %
14.08.2022 15:18 33,7 C 38,3 C 27,8 C 38 % 1006,3 hPa 0,0 l/m 2 min 0 min 831 W/m 9,7 km/h (2 Bft) 100,00 %
14.08.2022 15:20 33,7 C 38,9 C 27,2 C 38 % 1006,4 hPa 0,0 l/m 2 min 0 min 851 W/m 9,7 km/h (2 Bft) 100,00 %
14.08.2022 15:22 33,7 C 38,9 C 27,2 C 39 % 1006,3 hPa 0,0 l/m 2 min 0 min 852 W/m 3,2 km/h (1 Bft) 97,87 %
14.08.2022 15:24 33,7 C 38,9 C 27,2 C 39 % 1006,4 hPa 0,0 l/m 2 min 0 min 842 W/m 9,7 km/h (2 Bft) 100,00 %
14.08.2022 15:26 33,7 C 38,3 C 27,2 C 39 % 1006,3 hPa 0,0 l/m 2 min 0 min 831 W/m 9,7 km/h (2 Bft) 100,00 %
14.08.2022 15:28 33,8 C 38,9 C 27,8 C 40 % 1006,3 hPa 0,0 l/m 2 min 0 min 824 W/m 12,9 km/h (3 Bft) 100,00 %
14.08.2022 15:30 33,8 C 38,3 C 27,8 C 39 % 1006,3 hPa 0,0 l/m 2 min 0 min 812 W/m 12,9 km/h (3 Bft) 100,00 %
14.08.2022 15:32 33,8 C 37,8 C 27,8 C 39 % 1006,3 hPa 0,0 l/m 2 min 0 min 807 W/m 12,9 km/h (3 Bft) 97,87 %
14.08.2022 15:34 33,8 C 38,3 C 27,8 C 39 % 1006,2 hPa 0,0 l/m 2 min 0 min 809 W/m 9,7 km/h (2 Bft) 100,00 %
14.08.2022 15:36 33,9 C 38,9 C 27,2 C 39 % 1006,2 hPa 0,0 l/m 2 min 0 min 808 W/m 12,9 km/h (3 Bft) 95,74 %
14.08.2022 15:38 34,0 C 39,4 C 27,8 C 39 % 1006,1 hPa 0,0 l/m 2 min 0 min 803 W/m 6,4 km/h (2 Bft) 100,00 %
14.08.2022 15:40 34,0 C 37,2 C 27,2 C 39 % 1006,1 hPa 0,0 l/m 2 min 0 min 571 W/m 9,7 km/h (2 Bft) 95,74 %
14.08.2022 15:42 33,9 C 37,2 C 27,8 C 39 % 1006,1 hPa 0,0 l/m 2 min 0 min 508 W/m 9,7 km/h (2 Bft) 97,87 %
14.08.2022 15:44 34,1 C 37,8 C 27,8 C 38 % 1006,1 hPa 0,0 l/m 2 min 0 min 817 W/m 6,4 km/h (2 Bft) 93,62 %
14.08.2022 15:46 34,1 C 38,9 C 27,2 C 39 % 1006,1 hPa 0,0 l/m 2 min 0 min 809 W/m 6,4 km/h (2 Bft) 100,00 %
14.08.2022 15:48 34,1 C 38,3 C 27,8 C 38 % 1006,1 hPa 0,0 l/m 2 min 0 min 805 W/m 12,9 km/h (3 Bft) 93,62 %
14.08.2022 15:50 34,1 C 37,8 C 27,8 C 38 % 1006,0 hPa 0,0 l/m 2 min 0 min 790 W/m 12,9 km/h (3 Bft) 95,74 %
14.08.2022 15:52 34,1 C 38,3 C 27,8 C 39 % 1006,0 hPa 0,0 l/m 2 min 0 min 774 W/m 9,7 km/h (2 Bft) 91,30 %
14.08.2022 15:54 34,1 C 37,8 C 27,8 C 39 % 1005,9 hPa 0,0 l/m 2 min 0 min 769 W/m 9,7 km/h (2 Bft) 93,62 %
14.08.2022 15:56 34,1 C 37,2 C 27,8 C 39 % 1005,9 hPa 0,0 l/m 2 min 0 min 754 W/m 16,1 km/h (3 Bft) 93,62 %
14.08.2022 15:58 34,1 C 37,2 C 27,8 C 38 % 1005,9 hPa 0,0 l/m 2 min 0 min 743 W/m 12,9 km/h (3 Bft) 93,62 %
14.08.2022 16:00 34,0 C 36,7 C 27,8 C 39 % 1005,8 hPa 0,0 l/m 2 min 0 min 727 W/m 12,9 km/h (3 Bft) 93,62 %
14.08.2022 16:02 33,9 C 35,0 C 27,8 C 39 % 1005,9 hPa 0,0 l/m 2 min 0 min 556 W/m 12,9 km/h (3 Bft) 91,49 %
14.08.2022 16:04 33,9 C 33,3 C 27,2 C 39 % 1005,9 hPa 0,0 l/m 0 min 0 min 146 W/m 6,4 km/h (2 Bft) 91,30 %
14.08.2022 16:05 33,8 C 32,8 C 27,2 C 39 % 1005,8 hPa 0,0 l/m 0 min 0 min 146 W/m 12,9 km/h (3 Bft) 94,74 %
14.08.2022 16:10 33,4 C 32,2 C 26,7 C 40 % 1005,8 hPa 0,0 l/m 0 min 0 min 156 W/m 6,4 km/h (2 Bft) 78,95 %
14.08.2022 16:20 33,3 C 36,1 C 27,2 C 41 % 1005,7 hPa 0,0 l/m 5 min 0 min 756 W/m 6,4 km/h (2 Bft) 96,81 %
14.08.2022 16:22 33,3 C 35,6 C 27,2 C 41 % 1005,7 hPa 0,0 l/m 2 min 0 min 741 W/m 6,4 km/h (2 Bft) 91,43 %
14.08.2022 16:24 33,4 C 34,4 C 27,2 C 40 % 1005,7 hPa 0,0 l/m 2 min 0 min 647 W/m 12,9 km/h (3 Bft) 95,74 %
14.08.2022 16:26 33,3 C 34,4 C 27,2 C 41 % 1005,6 hPa 0,0 l/m 0 min 0 min 216 W/m 9,7 km/h (2 Bft) 95,74 %
14.08.2022 16:28 33,3 C 34,4 C 27,2 C 42 % 1005,6 hPa 0,0 l/m 0 min 0 min 220 W/m 9,7 km/h (2 Bft) 93,62 %
14.08.2022 16:30 33,3 C 35,0 C 26,7 C 41 % 1005,6 hPa 0,0 l/m 2 min 0 min 451 W/m 3,2 km/h (1 Bft) 93,48 %
14.08.2022 16:32 33,3 C 35,6 C 27,2 C 42 % 1005,6 hPa 0,0 l/m 2 min 0 min 579 W/m 9,7 km/h (2 Bft) 97,87 %
14.08.2022 16:34 33,3 C 36,7 C 27,2 C 42 % 1005,6 hPa 0,0 l/m 2 min 0 min 620 W/m 9,7 km/h (2 Bft) 97,87 %
14.08.2022 16:36 33,3 C 36,1 C 27,8 C 42 % 1005,5 hPa 0,0 l/m 2 min 0 min 646 W/m 12,9 km/h (3 Bft) 100,00 %
14.08.2022 16:38 33,3 C 36,7 C 27,8 C 43 % 1005,5 hPa 0,0 l/m 2 min 0 min 611 W/m 6,4 km/h (2 Bft) 100,00 %
14.08.2022 16:40 33,4 C 36,7 C 27,8 C 42 % 1005,5 hPa 0,0 l/m 2 min 0 min 599 W/m 6,4 km/h (2 Bft) 97,87 %
14.08.2022 16:42 33,4 C 36,1 C 27,8 C 42 % 1005,5 hPa 0,0 l/m 2 min 0 min 607 W/m 3,2 km/h (1 Bft) 100,00 %
14.08.2022 16:44 33,5 C 36,1 C 27,8 C 41 % 1005,5 hPa 0,0 l/m 2 min 0 min 634 W/m 6,4 km/h (2 Bft) 100,00 %
14.08.2022 16:46 33,6 C 37,2 C 27,8 C 41 % 1005,5 hPa 0,0 l/m 2 min 0 min 659 W/m 3,2 km/h (1 Bft) 97,87 %
14.08.2022 16:48 33,6 C 37,2 C 27,8 C 43 % 1005,5 hPa 0,0 l/m 2 min 0 min 671 W/m 6,4 km/h (2 Bft) 97,87 %
14.08.2022 16:50 33,6 C 37,2 C 27,8 C 41 % 1005,6 hPa 0,0 l/m 2 min 0 min 679 W/m 6,4 km/h (2 Bft) 100,00 %
14.08.2022 16:52 33,7 C 37,8 C 27,8 C 41 % 1005,5 hPa 0,0 l/m 2 min 0 min 670 W/m 9,7 km/h (2 Bft) 97,87 %
14.08.2022 16:54 33,7 C 37,8 C 27,8 C 41 % 1005,5 hPa 0,0 l/m 2 min 0 min 654 W/m 9,7 km/h (2 Bft) 100,00 %
14.08.2022 16:56 33,7 C 37,8 C 27,8 C 41 % 1005,4 hPa 0,0 l/m 2 min 0 min 663 W/m 6,4 km/h (2 Bft) 100,00 %
14.08.2022 16:58 33,7 C 38,3 C 28,3 C 41 % 1005,4 hPa 0,0 l/m 2 min 0 min 660 W/m 6,4 km/h (2 Bft) 100,00 %
14.08.2022 17:00 33,8 C 37,8 C 28,3 C 41 % 1005,4 hPa 0,0 l/m 2 min 0 min 642 W/m 6,4 km/h (2 Bft) 100,00 %
14.08.2022 17:02 33,8 C 37,2 C 28,3 C 40 % 1005,4 hPa 0,0 l/m 2 min 0 min 639 W/m 9,7 km/h (2 Bft) 100,00 %
14.08.2022 17:04 33,8 C 37,2 C 28,3 C 41 % 1005,4 hPa 0,0 l/m 2 min 0 min 631 W/m 12,9 km/h (3 Bft) 97,87 %
14.08.2022 17:06 33,8 C 37,8 C 28,3 C 41 % 1005,3 hPa 0,0 l/m 2 min 0 min 631 W/m 6,4 km/h (2 Bft) 98,28 %
14.08.2022 17:08 33,9 C 38,3 C 28,3 C 41 % 1005,4 hPa 0,0 l/m 2 min 0 min 628 W/m 3,2 km/h (1 Bft) 100,00 %
14.08.2022 17:10 33,9 C 37,8 C 28,3 C 41 % 1005,4 hPa 0,0 l/m 2 min 0 min 596 W/m 12,9 km/h (3 Bft) 100,00 %
14.08.2022 17:12 33,9 C 37,2 C 28,3 C 41 % 1005,3 hPa 0,0 l/m 2 min 0 min 559 W/m 12,9 km/h (3 Bft) 100,00 %
14.08.2022 17:14 33,9 C 37,2 C 28,3 C 42 % 1005,4 hPa 0,0 l/m 2 min 0 min 562 W/m 9,7 km/h (2 Bft) 97,87 %
14.08.2022 17:16 34,0 C 37,2 C 28,9 C 42 % 1005,4 hPa 0,0 l/m 2 min 0 min 565 W/m 12,9 km/h (3 Bft) 97,87 %
14.08.2022 17:18 33,9 C 37,2 C 28,3 C 41 % 1005,3 hPa 0,0 l/m 2 min 0 min 540 W/m 6,4 km/h (2 Bft) 97,83 %
14.08.2022 17:20 33,8 C 36,7 C 28,3 C 40 % 1005,3 hPa 0,0 l/m 2 min 0 min 509 W/m 6,4 km/h (2 Bft) 97,87 %
14.08.2022 17:22 33,8 C 36,7 C 27,8 C 41 % 1005,2 hPa 0,0 l/m 2 min 0 min 470 W/m 6,4 km/h (2 Bft) 97,87 %
14.08.2022 17:24 33,8 C 36,1 C 28,3 C 42 % 1005,3 hPa 0,0 l/m 2 min 0 min 446 W/m 6,4 km/h (2 Bft) 95,74 %
14.08.2022 17:26 33,8 C 36,7 C 27,8 C 41 % 1005,2 hPa 0,0 l/m 2 min 0 min 488 W/m 6,4 km/h (2 Bft) 97,87 %
14.08.2022 17:28 33,8 C 36,7 C 27,8 C 41 % 1005,2 hPa 0,0 l/m 2 min 0 min 546 W/m 3,2 km/h (1 Bft) 97,87 %
14.08.2022 17:30 33,7 C 36,7 C 27,8 C 42 % 1005,2 hPa 0,0 l/m 2 min 0 min 509 W/m 6,4 km/h (2 Bft) 97,83 %
14.08.2022 17:32 33,7 C 37,2 C 27,8 C 41 % 1005,2 hPa 0,0 l/m 2 min 0 min 511 W/m 6,4 km/h (2 Bft) 97,87 %
14.08.2022 17:34 33,8 C 36,7 C 28,3 C 41 % 1005,2 hPa 0,0 l/m 2 min 0 min 480 W/m 9,7 km/h (2 Bft) 95,74 %
14.08.2022 17:36 33,8 C 35,6 C 27,8 C 41 % 1005,2 hPa 0,0 l/m 2 min 0 min 358 W/m 6,4 km/h (2 Bft) 98,11 %
14.08.2022 17:38 33,7 C 35,0 C 27,8 C 42 % 1005,2 hPa 0,0 l/m 2 min 0 min 303 W/m 6,4 km/h (2 Bft) 100,00 %
14.08.2022 17:40 33,7 C 35,0 C 27,8 C 42 % 1005,2 hPa 0,0 l/m 2 min 0 min 283 W/m 6,4 km/h (2 Bft) 100,00 %
14.08.2022 17:42 33,6 C 35,0 C 27,8 C 41 % 1005,1 hPa 0,0 l/m 2 min 0 min 273 W/m 6,4 km/h (2 Bft) 100,00 %
14.08.2022 17:44 33,5 C 34,4 C 27,8 C 42 % 1005,1 hPa 0,0 l/m 2 min 0 min 320 W/m 6,4 km/h (2 Bft) 100,00 %
14.08.2022 17:46 33,4 C 35,0 C 27,8 C 42 % 1005,1 hPa 0,0 l/m 2 min 0 min 351 W/m 12,9 km/h (3 Bft) 100,00 %
14.08.2022 17:48 33,3 C 34,4 C 27,8 C 42 % 1005,1 hPa 0,0 l/m 2 min 0 min 341 W/m 6,4 km/h (2 Bft) 100,00 %
14.08.2022 17:50 33,3 C 35,0 C 27,8 C 42 % 1005,1 hPa 0,0 l/m 2 min 0 min 318 W/m 3,2 km/h (1 Bft) 100,00 %
14.08.2022 17:52 33,3 C 34,4 C 27,8 C 42 % 1005,0 hPa 0,0 l/m 2 min 0 min 282 W/m 6,4 km/h (2 Bft) 97,87 %
14.08.2022 17:54 33,2 C 34,4 C 27,2 C 43 % 1005,0 hPa 0,0 l/m 2 min 0 min 281 W/m 3,2 km/h (1 Bft) 100,00 %
14.08.2022 17:56 33,1 C 33,9 C 27,2 C 41 % 1005,0 hPa 0,0 l/m 2 min 0 min 293 W/m 9,7 km/h (2 Bft) 97,87 %
14.08.2022 17:58 33,1 C 33,9 C 27,2 C 42 % 1004,9 hPa 0,0 l/m 2 min 0 min 268 W/m 9,7 km/h (2 Bft) 100,00 %
14.08.2022 18:00 32,9 C 33,9 C 27,2 C 43 % 1004,9 hPa 0,0 l/m 2 min 0 min 245 W/m 6,4 km/h (2 Bft) 100,00 %
14.08.2022 18:02 32,8 C 33,9 C 27,2 C 43 % 1004,9 hPa 0,0 l/m 2 min 0 min 228 W/m 6,4 km/h (2 Bft) 100,00 %
14.08.2022 18:04 32,8 C 33,9 C 27,2 C 43 % 1004,9 hPa 0,0 l/m 2 min 0 min 281 W/m 9,7 km/h (2 Bft) 100,00 %
14.08.2022 18:08 32,8 C 34,4 C 27,2 C 43 % 1004,8 hPa 0,0 l/m 4 min 0 min 319 W/m 12,9 km/h (3 Bft) 100,00 %
14.08.2022 18:10 32,8 C 33,3 C 26,7 C 42 % 1004,8 hPa 0,0 l/m 2 min 0 min 206 W/m 6,4 km/h (2 Bft) 97,87 %
14.08.2022 18:12 32,8 C 32,8 C 26,7 C 44 % 1004,8 hPa 0,0 l/m 0 min 0 min 123 W/m 9,7 km/h (2 Bft) 100,00 %
14.08.2022 18:14 32,8 C 32,2 C 26,7 C 42 % 1004,8 hPa 0,0 l/m 0 min 0 min 119 W/m 9,7 km/h (2 Bft) 100,00 %
14.08.2022 18:16 32,7 C 31,7 C 26,7 C 45 % 1004,8 hPa 0,0 l/m 0 min 0 min 116 W/m 3,2 km/h (1 Bft) 100,00 %
14.08.2022 18:18 32,6 C 31,7 C 26,1 C 44 % 1004,8 hPa 0,0 l/m 0 min 0 min 118 W/m 6,4 km/h (2 Bft) 100,00 %
14.08.2022 18:20 32,6 C 31,1 C 26,1 C 44 % 1004,8 hPa 0,0 l/m 0 min 0 min 124 W/m 6,4 km/h (2 Bft) 97,87 %
14.08.2022 18:22 32,4 C 31,1 C 26,1 C 45 % 1004,8 hPa 0,0 l/m 0 min 0 min 120 W/m 6,4 km/h (2 Bft) 100,00 %
14.08.2022 18:24 32,3 C 31,1 C 26,1 C 43 % 1004,7 hPa 0,0 l/m 0 min 0 min 146 W/m 3,2 km/h (1 Bft) 97,83 %
14.08.2022 18:26 32,2 C 31,1 C 26,1 C 44 % 1004,7 hPa 0,0 l/m 0 min 0 min 140 W/m 6,4 km/h (2 Bft) 97,87 %
14.08.2022 18:28 32,2 C 31,1 C 26,1 C 46 % 1004,7 hPa 0,0 l/m 0 min 0 min 135 W/m 3,2 km/h (1 Bft) 95,74 %
14.08.2022 18:30 32,1 C 31,1 C 26,1 C 45 % 1004,7 hPa 0,0 l/m 0 min 0 min 175 W/m 3,2 km/h (1 Bft) 97,87 %
14.08.2022 18:32 32,0 C 31,1 C 26,1 C 45 % 1004,7 hPa 0,0 l/m 0 min 0 min 126 W/m 3,2 km/h (1 Bft) 97,87 %
14.08.2022 18:34 31,9 C 31,1 C 26,1 C 46 % 1004,7 hPa 0,0 l/m 0 min 0 min 122 W/m 6,4 km/h (2 Bft) 95,74 %
14.08.2022 18:36 31,8 C 31,1 C 25,6 C 45 % 1004,7 hPa 0,0 l/m 0 min 0 min 114 W/m 6,4 km/h (2 Bft) 97,83 %
14.08.2022 18:38 31,8 C 30,6 C 25,6 C 47 % 1004,7 hPa 0,0 l/m 0 min 0 min 103 W/m 3,2 km/h (1 Bft) 97,87 %
14.08.2022 18:40 31,7 C 30,6 C 25,6 C 48 % 1004,6 hPa 0,0 l/m 0 min 0 min 103 W/m 3,2 km/h (1 Bft) 97,87 %
14.08.2022 18:42 31,7 C 30,6 C 25,6 C 49 % 1004,6 hPa 0,0 l/m 0 min 0 min 120 W/m 3,2 km/h (1 Bft) 97,87 %
14.08.2022 18:44 31,6 C 30,6 C 25,6 C 48 % 1004,6 hPa 0,0 l/m 0 min 0 min 134 W/m 3,2 km/h (1 Bft) 97,87 %
14.08.2022 18:46 31,5 C 30,6 C 25,0 C 46 % 1004,6 hPa 0,0 l/m 0 min 0 min 146 W/m 6,4 km/h (2 Bft) 93,62 %
14.08.2022 18:48 31,4 C 31,1 C 25,6 C 48 % 1004,5 hPa 0,0 l/m 0 min 0 min 157 W/m 3,2 km/h (1 Bft) 97,83 %
14.08.2022 18:50 31,4 C 31,1 C 25,0 C 49 % 1004,5 hPa 0,0 l/m 2 min 0 min 177 W/m 3,2 km/h (1 Bft) 95,74 %
14.08.2022 18:52 31,3 C 31,1 C 25,0 C 49 % 1004,5 hPa 0,0 l/m 2 min 0 min 208 W/m 3,2 km/h (1 Bft) 95,74 %
14.08.2022 18:54 31,3 C 31,1 C 25,6 C 47 % 1004,5 hPa 0,0 l/m 2 min 0 min 228 W/m 3,2 km/h (1 Bft) 93,62 %
14.08.2022 18:56 31,2 C 31,1 C 25,6 C 48 % 1004,4 hPa 0,0 l/m 2 min 0 min 246 W/m 6,4 km/h (2 Bft) 93,62 %
14.08.2022 18:58 31,2 C 30,6 C 25,6 C 48 % 1004,4 hPa 0,0 l/m 2 min 0 min 181 W/m 6,4 km/h (2 Bft) 95,74 %
14.08.2022 19:00 31,2 C 30,6 C 25,6 C 49 % 1004,4 hPa 0,0 l/m 2 min 0 min 202 W/m 3,2 km/h (1 Bft) 95,65 %
14.08.2022 19:02 31,2 C 30,6 C 25,6 C 48 % 1004,4 hPa 0,0 l/m 2 min 0 min 213 W/m 6,4 km/h (2 Bft) 93,62 %
14.08.2022 19:04 31,1 C 30,6 C 25,6 C 47 % 1004,4 hPa 0,0 l/m 2 min 0 min 141 W/m 6,4 km/h (2 Bft) 95,74 %
14.08.2022 19:06 31,1 C 30,6 C 25,6 C 47 % 1004,4 hPa 0,0 l/m 2 min 0 min 162 W/m 3,2 km/h (1 Bft) 97,87 %
14.08.2022 19:08 31,1 C 30,6 C 25,6 C 48 % 1004,3 hPa 0,0 l/m 2 min 0 min 201 W/m 9,7 km/h (2 Bft) 97,87 %
14.08.2022 19:10 31,1 C 30,6 C 25,6 C 48 % 1004,3 hPa 0,0 l/m 2 min 0 min 146 W/m 9,7 km/h (2 Bft) 97,87 %
14.08.2022 19:12 31,1 C 30,6 C 25,6 C 47 % 1004,3 hPa 0,0 l/m 0 min 0 min 123 W/m 6,4 km/h (2 Bft) 97,83 %
14.08.2022 19:14 31,1 C 30,6 C 25,6 C 47 % 1004,3 hPa 0,0 l/m 0 min 0 min 120 W/m 6,4 km/h (2 Bft) 95,74 %
14.08.2022 19:16 31,1 C 30,6 C 25,6 C 47 % 1004,3 hPa 0,0 l/m 0 min 0 min 117 W/m 6,4 km/h (2 Bft) 95,74 %
14.08.2022 19:18 31,1 C 30,6 C 25,6 C 48 % 1004,3 hPa 0,0 l/m 0 min 0 min 110 W/m 6,4 km/h (2 Bft) 95,74 %
14.08.2022 19:20 31,1 C 30,6 C 25,6 C 49 % 1004,2 hPa 0,0 l/m 0 min 0 min 102 W/m 3,2 km/h (1 Bft) 95,74 %
14.08.2022 19:22 31,1 C 30,6 C 25,6 C 49 % 1004,3 hPa 0,0 l/m 0 min 0 min 96 W/m 6,4 km/h (2 Bft) 95,74 %
14.08.2022 19:24 31,1 C 30,6 C 25,6 C 50 % 1004,3 hPa 0,0 l/m 0 min 0 min 89 W/m 6,4 km/h (2 Bft) 93,48 %
14.08.2022 19:26 31,0 C 30,0 C 25,6 C 49 % 1004,2 hPa 0,0 l/m 0 min 0 min 83 W/m 6,4 km/h (2 Bft) 97,87 %
14.08.2022 19:28 30,9 C 30,0 C 25,0 C 49 % 1004,3 hPa 0,0 l/m 0 min 0 min 80 W/m 6,4 km/h (2 Bft) 97,87 %
14.08.2022 19:30 30,9 C 30,0 C 25,0 C 49 % 1004,3 hPa 0,0 l/m 0 min 0 min 77 W/m 6,4 km/h (2 Bft) 97,87 %
14.08.2022 19:32 30,8 C 29,4 C 25,0 C 48 % 1004,2 hPa 0,0 l/m 0 min 0 min 76 W/m 9,7 km/h (2 Bft) 97,87 %
14.08.2022 19:34 30,8 C 29,4 C 25,0 C 49 % 1004,3 hPa 0,0 l/m 0 min 0 min 73 W/m 6,4 km/h (2 Bft) 97,87 %
14.08.2022 19:36 30,7 C 29,4 C 25,0 C 49 % 1004,2 hPa 0,0 l/m 0 min 0 min 70 W/m 6,4 km/h (2 Bft) 97,83 %
14.08.2022 19:38 30,7 C 29,4 C 25,0 C 49 % 1004,2 hPa 0,0 l/m 0 min 0 min 65 W/m 6,4 km/h (2 Bft) 97,87 %
14.08.2022 19:40 30,6 C 29,4 C 25,0 C 48 % 1004,2 hPa 0,0 l/m 0 min 0 min 61 W/m 3,2 km/h (1 Bft) 97,87 %
14.08.2022 19:42 30,6 C 29,4 C 25,0 C 48 % 1004,2 hPa 0,0 l/m 0 min 0 min 59 W/m 3,2 km/h (1 Bft) 97,87 %
14.08.2022 19:44 30,5 C 28,9 C 24,4 C 49 % 1004,2 hPa 0,0 l/m 0 min 0 min 56 W/m 3,2 km/h (1 Bft) 97,87 %
14.08.2022 19:46 30,4 C 28,9 C 24,4 C 49 % 1004,2 hPa 0,0 l/m 0 min 0 min 54 W/m 3,2 km/h (1 Bft) 97,87 %
14.08.2022 19:48 30,4 C 28,9 C 24,4 C 49 % 1004,2 hPa 0,0 l/m 0 min 0 min 50 W/m 6,4 km/h (2 Bft) 97,87 %
14.08.2022 19:50 30,3 C 28,9 C 24,4 C 50 % 1004,2 hPa 0,0 l/m 0 min 0 min 47 W/m 3,2 km/h (1 Bft) 97,83 %
14.08.2022 19:52 30,3 C 28,9 C 24,4 C 50 % 1004,2 hPa 0,0 l/m 0 min 0 min 45 W/m 3,2 km/h (1 Bft) 97,87 %
14.08.2022 19:54 30,3 C 28,3 C 23,9 C 51 % 1004,2 hPa 0,0 l/m 0 min 0 min 43 W/m 3,2 km/h (1 Bft) 97,87 %
14.08.2022 19:56 30,2 C 28,3 C 23,9 C 51 % 1004,2 hPa 0,0 l/m 0 min 0 min 41 W/m 3,2 km/h (1 Bft) 95,74 %
14.08.2022 19:58 30,2 C 28,3 C 23,9 C 49 % 1004,2 hPa 0,0 l/m 0 min 0 min 40 W/m 3,2 km/h (1 Bft) 97,87 %
14.08.2022 20:00 30,1 C 28,3 C 23,9 C 50 % 1004,2 hPa 0,0 l/m 0 min 0 min 39 W/m 0,0 km/h (0 Bft) 97,83 %
14.08.2022 20:02 30,1 C 28,3 C 23,9 C 50 % 1004,2 hPa 0,0 l/m 0 min 0 min 38 W/m 0,0 km/h (0 Bft) 95,74 %
14.08.2022 20:04 30,1 C 28,3 C 23,9 C 52 % 1004,2 hPa 0,0 l/m 0 min 0 min 37 W/m 0,0 km/h (0 Bft) 97,87 %
14.08.2022 20:06 30,1 C 28,3 C 23,3 C 53 % 1004,2 hPa 0,0 l/m 0 min 0 min 35 W/m 3,2 km/h (1 Bft) 97,87 %
14.08.2022 20:08 30,0 C 27,8 C 23,3 C 54 % 1004,3 hPa 0,0 l/m 0 min 0 min 33 W/m 0,0 km/h (0 Bft) 95,74 %
14.08.2022 20:10 29,9 C 27,8 C 23,3 C 53 % 1004,2 hPa 0,0 l/m 0 min 0 min 33 W/m 0,0 km/h (0 Bft) 97,87 %
14.08.2022 20:12 29,9 C 27,8 C 23,3 C 52 % 1004,2 hPa 0,0 l/m 0 min 0 min 32 W/m 0,0 km/h (0 Bft) 95,65 %
14.08.2022 20:14 29,9 C 27,8 C 22,8 C 54 % 1004,2 hPa 0,0 l/m 0 min 0 min 30 W/m 3,2 km/h (1 Bft) 97,87 %
14.08.2022 20:16 29,8 C 27,2 C 22,8 C 53 % 1004,2 hPa 0,0 l/m 0 min 0 min 28 W/m 0,0 km/h (0 Bft) 97,87 %
14.08.2022 20:18 29,7 C 27,2 C 22,8 C 53 % 1004,2 hPa 0,0 l/m 0 min 0 min 27 W/m 0,0 km/h (0 Bft) 97,87 %
14.08.2022 20:20 29,7 C 27,2 C 22,8 C 54 % 1004,2 hPa 0,0 l/m 0 min 0 min 26 W/m 0,0 km/h (0 Bft) 97,87 %
14.08.2022 20:22 29,6 C 27,2 C 22,8 C 52 % 1004,2 hPa 0,0 l/m 0 min 0 min 25 W/m 3,2 km/h (1 Bft) 97,87 %
14.08.2022 20:24 29,5 C 27,2 C 22,8 C 52 % 1004,2 hPa 0,0 l/m 0 min 0 min 24 W/m 3,2 km/h (1 Bft) 97,83 %
14.08.2022 20:26 29,4 C 27,2 C 22,8 C 53 % 1004,2 hPa 0,0 l/m 0 min 0 min 22 W/m 0,0 km/h (0 Bft) 100,00 %
14.08.2022 20:28 29,4 C 27,2 C 22,8 C 53 % 1004,2 hPa 0,0 l/m 0 min 0 min 20 W/m 0,0 km/h (0 Bft) 100,00 %
14.08.2022 20:30 29,3 C 27,2 C 22,8 C 53 % 1004,2 hPa 0,0 l/m 0 min 0 min 19 W/m 0,0 km/h (0 Bft) 100,00 %
14.08.2022 20:32 29,2 C 27,2 C 22,8 C 52 % 1004,2 hPa 0,0 l/m 0 min 0 min 17 W/m 0,0 km/h (0 Bft) 100,00 %
14.08.2022 20:34 29,1 C 26,7 C 22,2 C 54 % 1004,2 hPa 0,0 l/m 0 min 0 min 16 W/m 0,0 km/h (0 Bft) 97,87 %
14.08.2022 20:36 29,1 C 26,7 C 22,2 C 56 % 1004,2 hPa 0,0 l/m 0 min 0 min 14 W/m 0,0 km/h (0 Bft) 95,65 %
14.08.2022 20:38 29,1 C 26,7 C 22,2 C 54 % 1004,2 hPa 0,0 l/m 0 min 0 min 12 W/m 3,2 km/h (1 Bft) 100,00 %
14.08.2022 20:40 28,9 C 26,7 C 22,2 C 54 % 1004,2 hPa 0,0 l/m 0 min 0 min 12 W/m 0,0 km/h (0 Bft) 97,87 %
14.08.2022 20:42 28,9 C 26,7 C 22,2 C 54 % 1004,2 hPa 0,0 l/m 0 min 0 min 11 W/m 0,0 km/h (0 Bft) 97,87 %
14.08.2022 20:44 28,8 C 26,7 C 22,2 C 55 % 1004,1 hPa 0,0 l/m 0 min 0 min 9 W/m 0,0 km/h (0 Bft) 100,00 %
14.08.2022 20:46 28,8 C 26,1 C 22,2 C 55 % 1004,1 hPa 0,0 l/m 0 min 0 min 7 W/m 3,2 km/h (1 Bft) 100,00 %
14.08.2022 20:48 28,7 C 26,1 C 22,2 C 55 % 1004,2 hPa 0,0 l/m 0 min 0 min 7 W/m 3,2 km/h (1 Bft) 100,00 %
14.08.2022 20:50 28,6 C 26,1 C 21,7 C 55 % 1004,2 hPa 0,0 l/m 0 min 0 min 5 W/m 3,2 km/h (1 Bft) 97,87 %
14.08.2022 20:52 28,6 C 26,1 C 21,7 C 56 % 1004,2 hPa 0,0 l/m 0 min 0 min 2 W/m 0,0 km/h (0 Bft) 93,62 %
14.08.2022 20:54 28,4 C 26,1 C 21,7 C 57 % 1004,2 hPa 0,0 l/m 0 min 0 min 0 W/m 0,0 km/h (0 Bft) 95,74 %
14.08.2022 20:56 28,4 C 25,6 C 21,7 C 57 % 1004,2 hPa 0,0 l/m 0 min 0 min 0 W/m 3,2 km/h (1 Bft) 95,74 %
14.08.2022 20:58 28,3 C 25,6 C 21,7 C 57 % 1004,2 hPa 0,0 l/m 0 min 0 min 0 W/m 3,2 km/h (1 Bft) 95,74 %
14.08.2022 21:00 28,1 C 25,6 C 21,7 C 56 % 1004,2 hPa 0,0 l/m 0 min 0 min 0 W/m 3,2 km/h (1 Bft) 95,65 %
14.08.2022 21:02 28,0 C 25,6 C 21,7 C 56 % 1004,3 hPa 0,0 l/m 0 min 0 min 0 W/m 3,2 km/h (1 Bft) 93,62 %
14.08.2022 21:04 27,9 C 25,6 C 21,7 C 56 % 1004,3 hPa 0,0 l/m 0 min 0 min 0 W/m 3,2 km/h (1 Bft) 93,62 %
14.08.2022 21:06 27,8 C 25,6 C 21,7 C 56 % 1004,3 hPa 0,0 l/m 0 min 0 min 0 W/m 3,2 km/h (1 Bft) 95,74 %
14.08.2022 21:08 27,8 C 25,6 C 21,7 C 56 % 1004,3 hPa 0,0 l/m 0 min 0 min 0 W/m 3,2 km/h (1 Bft) 94,00 %
14.08.2022 21:10 27,7 C 25,6 C 21,7 C 57 % 1004,3 hPa 0,0 l/m 0 min 0 min 0 W/m 3,2 km/h (1 Bft) 95,65 %
14.08.2022 21:12 27,6 C 25,6 C 21,7 C 56 % 1004,3 hPa 0,0 l/m 0 min 0 min 0 W/m 6,4 km/h (2 Bft) 95,74 %
14.08.2022 21:14 27,6 C 25,6 C 21,7 C 58 % 1004,3 hPa 0,0 l/m 0 min 0 min 0 W/m 3,2 km/h (1 Bft) 95,74 %
14.08.2022 21:16 27,4 C 25,6 C 21,7 C 58 % 1004,3 hPa 0,0 l/m 0 min 0 min 0 W/m 3,2 km/h (1 Bft) 95,74 %
14.08.2022 21:18 27,4 C 25,6 C 21,7 C 57 % 1004,3 hPa 0,0 l/m 0 min 0 min 0 W/m 3,2 km/h (1 Bft) 93,62 %
14.08.2022 21:20 27,3 C 25,6 C 21,7 C 58 % 1004,3 hPa 0,0 l/m 0 min 0 min 0 W/m 3,2 km/h (1 Bft) 95,74 %
14.08.2022 21:22 27,3 C 25,6 C 21,7 C 59 % 1004,3 hPa 0,0 l/m 0 min 0 min 0 W/m 0,0 km/h (0 Bft) 95,65 %
14.08.2022 21:24 27,2 C 25,6 C 21,7 C 59 % 1004,3 hPa 0,0 l/m 0 min 0 min 0 W/m 3,2 km/h (1 Bft) 97,87 %
14.08.2022 21:26 27,2 C 25,0 C 21,1 C 60 % 1004,3 hPa 0,0 l/m 0 min 0 min 0 W/m 0,0 km/h (0 Bft) 97,87 %
14.08.2022 21:28 27,2 C 25,0 C 21,1 C 60 % 1004,3 hPa 0,0 l/m 0 min 0 min 0 W/m 3,2 km/h (1 Bft) 97,87 %
14.08.2022 21:30 27,1 C 25,0 C 21,1 C 60 % 1004,3 hPa 0,0 l/m 0 min 0 min 0 W/m 3,2 km/h (1 Bft) 95,74 %
14.08.2022 21:32 27,1 C 25,0 C 21,1 C 60 % 1004,3 hPa 0,0 l/m 0 min 0 min 0 W/m 0,0 km/h (0 Bft) 97,87 %
14.08.2022 21:34 26,9 C 25,0 C 21,1 C 60 % 1004,3 hPa 0,0 l/m 0 min 0 min 0 W/m 3,2 km/h (1 Bft) 97,83 %
14.08.2022 21:36 26,9 C 25,0 C 21,1 C 61 % 1004,3 hPa 0,0 l/m 0 min 0 min 0 W/m 3,2 km/h (1 Bft) 97,87 %
14.08.2022 21:38 26,8 C 25,0 C 21,1 C 61 % 1004,4 hPa 0,0 l/m 0 min 0 min 0 W/m 0,0 km/h (0 Bft) 100,00 %
14.08.2022 21:40 26,8 C 24,4 C 21,1 C 61 % 1004,4 hPa 0,0 l/m 0 min 0 min 0 W/m 0,0 km/h (0 Bft) 100,00 %
14.08.2022 21:42 26,7 C 24,4 C 21,1 C 62 % 1004,4 hPa 0,0 l/m 0 min 0 min 0 W/m 0,0 km/h (0 Bft) 100,00 %
14.08.2022 21:44 26,7 C 24,4 C 20,6 C 63 % 1004,3 hPa 0,0 l/m 0 min 0 min 0 W/m 0,0 km/h (0 Bft) 95,74 %
14.08.2022 21:46 26,6 C 24,4 C 20,6 C 63 % 1004,3 hPa 0,0 l/m 0 min 0 min 0 W/m 0,0 km/h (0 Bft) 100,00 %
14.08.2022 21:48 26,6 C 24,4 C 20,6 C 63 % 1004,3 hPa 0,0 l/m 0 min 0 min 0 W/m 0,0 km/h (0 Bft) 97,87 %
14.08.2022 21:50 26,5 C 24,4 C 20,6 C 63 % 1004,3 hPa 0,0 l/m 0 min 0 min 0 W/m 0,0 km/h (0 Bft) 100,00 %
14.08.2022 21:52 26,4 C 24,4 C 20,6 C 63 % 1004,4 hPa 0,0 l/m 0 min 0 min 0 W/m 0,0 km/h (0 Bft) 100,00 %
14.08.2022 21:54 26,3 C 23,9 C 20,6 C 62 % 1004,3 hPa 0,0 l/m 0 min 0 min 0 W/m 0,0 km/h (0 Bft) 100,00 %
14.08.2022 21:56 26,3 C 23,9 C 20,6 C 63 % 1004,3 hPa 0,0 l/m 0 min 0 min 0 W/m 0,0 km/h (0 Bft) 100,00 %
14.08.2022 21:58 26,3 C 23,9 C 20,6 C 63 % 1004,3 hPa 0,0 l/m 0 min 0 min 0 W/m 0,0 km/h (0 Bft) 97,83 %
14.08.2022 22:00 26,2 C 23,9 C 20,0 C 64 % 1004,3 hPa 0,0 l/m 0 min 0 min 0 W/m 0,0 km/h (0 Bft) 100,00 %
14.08.2022 22:02 26,2 C 23,9 C 20,0 C 65 % 1004,3 hPa 0,0 l/m 0 min 0 min 0 W/m 0,0 km/h (0 Bft) 100,00 %
14.08.2022 22:04 26,1 C 23,9 C 20,0 C 64 % 1004,3 hPa 0,0 l/m 0 min 0 min 0 W/m 0,0 km/h (0 Bft) 100,00 %
14.08.2022 22:06 26,0 C 23,9 C 20,0 C 65 % 1004,2 hPa 0,0 l/m 0 min 0 min 0 W/m 0,0 km/h (0 Bft) 100,00 %
14.08.2022 22:08 25,9 C 23,9 C 20,0 C 64 % 1004,3 hPa 0,0 l/m 0 min 0 min 0 W/m 0,0 km/h (0 Bft) 100,00 %
14.08.2022 22:10 25,9 C 23,9 C 20,0 C 64 % 1004,3 hPa 0,0 l/m 0 min 0 min 0 W/m 0,0 km/h (0 Bft) 97,87 %
14.08.2022 22:12 25,8 C 23,9 C 20,0 C 63 % 1004,3 hPa 0,0 l/m 0 min 0 min 0 W/m 0,0 km/h (0 Bft) 100,00 %
14.08.2022 22:14 25,8 C 23,9 C 20,0 C 65 % 1004,3 hPa 0,0 l/m 0 min 0 min 0 W/m 0,0 km/h (0 Bft) 100,00 %
14.08.2022 22:16 25,7 C 23,9 C 20,0 C 65 % 1004,3 hPa 0,0 l/m 0 min 0 min 0 W/m 0,0 km/h (0 Bft) 100,00 %
14.08.2022 22:18 25,7 C 23,3 C 20,0 C 65 % 1004,2 hPa 0,0 l/m 0 min 0 min 0 W/m 0,0 km/h (0 Bft) 97,87 %
14.08.2022 22:20 25,6 C 23,3 C 20,0 C 66 % 1004,3 hPa 0,0 l/m 0 min 0 min 0 W/m 0,0 km/h (0 Bft) 100,00 %
14.08.2022 22:22 25,6 C 23,3 C 19,4 C 66 % 1004,3 hPa 0,0 l/m 0 min 0 min 0 W/m 0,0 km/h (0 Bft) 100,00 %
14.08.2022 22:24 25,5 C 23,3 C 19,4 C 66 % 1004,3 hPa 0,0 l/m 0 min 0 min 0 W/m 0,0 km/h (0 Bft) 100,00 %
14.08.2022 22:26 25,4 C 23,3 C 19,4 C 66 % 1004,2 hPa 0,0 l/m 0 min 0 min 0 W/m 0,0 km/h (0 Bft) 100,00 %
14.08.2022 22:28 25,4 C 23,3 C 19,4 C 67 % 1004,2 hPa 0,0 l/m 0 min 0 min 0 W/m 0,0 km/h (0 Bft) 97,87 %
14.08.2022 22:30 25,3 C 23,3 C 19,4 C 67 % 1004,2 hPa 0,0 l/m 0 min 0 min 0 W/m 0,0 km/h (0 Bft) 100,00 %
14.08.2022 22:32 25,2 C 23,3 C 19,4 C 67 % 1004,2 hPa 0,0 l/m 0 min 0 min 0 W/m 3,2 km/h (1 Bft) 97,83 %
14.08.2022 22:34 25,2 C 23,3 C 19,4 C 66 % 1004,2 hPa 0,0 l/m 0 min 0 min 0 W/m 0,0 km/h (0 Bft) 97,87 %
14.08.2022 22:36 25,1 C 23,3 C 19,4 C 67 % 1004,3 hPa 0,0 l/m 0 min 0 min 0 W/m 0,0 km/h (0 Bft) 97,87 %
14.08.2022 22:38 25,1 C 22,8 C 19,4 C 67 % 1004,3 hPa 0,0 l/m 0 min 0 min 0 W/m 3,2 km/h (1 Bft) 95,74 %
14.08.2022 22:40 25,0 C 22,8 C 19,4 C 67 % 1004,3 hPa 0,0 l/m 0 min 0 min 0 W/m 3,2 km/h (1 Bft) 100,00 %
14.08.2022 22:42 25,0 C 22,8 C 19,4 C 67 % 1004,2 hPa 0,0 l/m 0 min 0 min 0 W/m 0,0 km/h (0 Bft) 100,00 %
14.08.2022 22:44 24,9 C 23,3 C 19,4 C 67 % 1004,2 hPa 0,0 l/m 0 min 0 min 0 W/m 0,0 km/h (0 Bft) 97,83 %
14.08.2022 22:46 24,9 C 23,3 C 19,4 C 67 % 1004,2 hPa 0,0 l/m 0 min 0 min 0 W/m 0,0 km/h (0 Bft) 97,87 %
14.08.2022 22:48 24,8 C 23,3 C 19,4 C 67 % 1004,2 hPa 0,0 l/m 0 min 0 min 0 W/m 3,2 km/h (1 Bft) 97,87 %
14.08.2022 22:50 24,8 C 23,3 C 19,4 C 67 % 1004,2 hPa 0,0 l/m 0 min 0 min 0 W/m 3,2 km/h (1 Bft) 95,74 %
14.08.2022 22:52 24,8 C 22,8 C 19,4 C 67 % 1004,2 hPa 0,0 l/m 0 min 0 min 0 W/m 0,0 km/h (0 Bft) 95,74 %
14.08.2022 22:54 24,7 C 22,8 C 19,4 C 68 % 1004,2 hPa 0,0 l/m 0 min 0 min 0 W/m 0,0 km/h (0 Bft) 95,74 %
14.08.2022 22:56 24,7 C 22,8 C 19,4 C 68 % 1004,2 hPa 0,0 l/m 0 min 0 min 0 W/m 0,0 km/h (0 Bft) 95,74 %
14.08.2022 22:58 24,7 C 22,8 C 19,4 C 68 % 1004,2 hPa 0,0 l/m 0 min 0 min 0 W/m 0,0 km/h (0 Bft) 95,65 %
14.08.2022 23:00 24,6 C 22,8 C 19,4 C 68 % 1004,2 hPa 0,0 l/m 0 min 0 min 0 W/m 0,0 km/h (0 Bft) 94,29 %
14.08.2022 23:02 24,6 C 22,8 C 19,4 C 68 % 1004,2 hPa 0,0 l/m 0 min 0 min 0 W/m 0,0 km/h (0 Bft) 96,00 %
14.08.2022 23:04 24,6 C 22,8 C 19,4 C 68 % 1004,2 hPa 0,0 l/m 0 min 0 min 0 W/m 0,0 km/h (0 Bft) 95,74 %
14.08.2022 23:06 24,6 C 22,8 C 19,4 C 69 % 1004,2 hPa 0,0 l/m 0 min 0 min 0 W/m 0,0 km/h (0 Bft) 95,74 %
14.08.2022 23:08 24,5 C 22,8 C 19,4 C 69 % 1004,2 hPa 0,0 l/m 0 min 0 min 0 W/m 3,2 km/h (1 Bft) 95,74 %
14.08.2022 23:10 24,4 C 23,3 C 19,4 C 67 % 1004,1 hPa 0,0 l/m 0 min 0 min 0 W/m 0,0 km/h (0 Bft) 95,74 %
14.08.2022 23:12 24,4 C 23,3 C 19,4 C 67 % 1004,1 hPa 0,0 l/m 0 min 0 min 0 W/m 0,0 km/h (0 Bft) 95,65 %
14.08.2022 23:14 24,4 C 23,3 C 19,4 C 67 % 1004,1 hPa 0,0 l/m 0 min 0 min 0 W/m 3,2 km/h (1 Bft) 93,62 %
14.08.2022 23:16 24,4 C 22,8 C 19,4 C 68 % 1004,1 hPa 0,0 l/m 0 min 0 min 0 W/m 3,2 km/h (1 Bft) 95,74 %
14.08.2022 23:18 24,3 C 22,8 C 19,4 C 68 % 1004,1 hPa 0,0 l/m 0 min 0 min 0 W/m 3,2 km/h (1 Bft) 95,74 %
14.08.2022 23:20 24,3 C 22,8 C 19,4 C 68 % 1004,1 hPa 0,0 l/m 0 min 0 min 0 W/m 3,2 km/h (1 Bft) 95,74 %
14.08.2022 23:22 24,3 C 22,8 C 18,9 C 68 % 1004,1 hPa 0,0 l/m 0 min 0 min 0 W/m 3,2 km/h (1 Bft) 95,74 %
14.08.2022 23:24 24,3 C 22,8 C 19,4 C 69 % 1004,0 hPa 0,0 l/m 0 min 0 min 0 W/m 3,2 km/h (1 Bft) 97,83 %
14.08.2022 23:26 24,3 C 22,8 C 19,4 C 68 % 1004,0 hPa 0,0 l/m 0 min 0 min 0 W/m 3,2 km/h (1 Bft) 97,87 %
14.08.2022 23:28 24,3 C 22,8 C 19,4 C 69 % 1004,0 hPa 0,0 l/m 0 min 0 min 0 W/m 3,2 km/h (1 Bft) 95,74 %
14.08.2022 23:30 24,2 C 22,8 C 19,4 C 69 % 1004,0 hPa 0,0 l/m 0 min 0 min 0 W/m 3,2 km/h (1 Bft) 95,74 %
14.08.2022 23:32 24,2 C 22,8 C 19,4 C 69 % 1004,0 hPa 0,0 l/m 0 min 0 min 0 W/m 0,0 km/h (0 Bft) 95,74 %
14.08.2022 23:34 24,2 C 22,8 C 19,4 C 69 % 1004,0 hPa 0,0 l/m 0 min 0 min 0 W/m 0,0 km/h (0 Bft) 95,74 %
14.08.2022 23:36 24,2 C 22,8 C 19,4 C 69 % 1004,0 hPa 0,0 l/m 0 min 0 min 0 W/m 0,0 km/h (0 Bft) 95,65 %
14.08.2022 23:38 24,2 C 22,8 C 19,4 C 69 % 1004,0 hPa 0,0 l/m 0 min 0 min 0 W/m 0,0 km/h (0 Bft) 97,87 %
14.08.2022 23:40 24,2 C 22,8 C 19,4 C 69 % 1004,0 hPa 0,0 l/m 0 min 0 min 0 W/m 0,0 km/h (0 Bft) 97,87 %
14.08.2022 23:42 24,2 C 22,8 C 19,4 C 69 % 1004,0 hPa 0,0 l/m 0 min 0 min 0 W/m 0,0 km/h (0 Bft) 95,74 %
14.08.2022 23:44 24,2 C 22,8 C 18,9 C 70 % 1004,0 hPa 0,0 l/m 0 min 0 min 0 W/m 0,0 km/h (0 Bft) 95,74 %
14.08.2022 23:46 24,2 C 22,8 C 18,9 C 70 % 1004,0 hPa 0,0 l/m 0 min 0 min 0 W/m 0,0 km/h (0 Bft) 97,87 %
14.08.2022 23:48 24,2 C 22,8 C 18,9 C 70 % 1004,0 hPa 0,0 l/m 0 min 0 min 0 W/m 0,0 km/h (0 Bft) 97,83 %
14.08.2022 23:50 24,1 C 22,8 C 18,9 C 70 % 1004,0 hPa 0,0 l/m 0 min 0 min 0 W/m 0,0 km/h (0 Bft) 97,87 %
14.08.2022 23:52 24,1 C 22,8 C 18,9 C 69 % 1003,9 hPa 0,0 l/m 0 min 0 min 0 W/m 0,0 km/h (0 Bft) 97,87 %
14.08.2022 23:54 24,1 C 22,8 C 18,9 C 69 % 1004,0 hPa 0,0 l/m 0 min 0 min 0 W/m 0,0 km/h (0 Bft) 97,87 %
14.08.2022 23:56 24,1 C 22,8 C 18,9 C 69 % 1004,0 hPa 0,0 l/m 0 min 0 min 0 W/m 0,0 km/h (0 Bft) 97,87 %
14.08.2022 23:58 24,1 C 22,8 C 18,9 C 70 % 1004,0 hPa 0,0 l/m 0 min 0 min 0 W/m 0,0 km/h (0 Bft) 95,74 %
_ Min-Zeit 06:56 06:04 06:18 15:18 23:52 - - - - 00:00 16:10
Minimum _ 17,8 C 16,7 C 13,3 C 38 % 1003,9 hPa - - - - 0,0 km/h (0 Bft) 78,95 %
_ Max-Zeit 15:44 14:50 12:34 08:04 00:20 00:00 16:20 00:00 13:48 09:00 00:34
Maximum _ 34,1 C 41,7 C 31,1 C 87 % 1012,9 hPa 0,0 l/m 5 min 0 min 876 W/m 19,3 km/h
SO (3 Bft)
100,00 %
Durchschnitt _ 26,2 C 26,6 C 21,0 C 61 % 1008,2 hPa #0,0 l/m #9:21 h #0 min. 435 W/m 4,9 km/h (1 Bft) 97,54 %
© 2022 W. Hausmann